Time,TemperatureF,DewpointF,PressureIn,WindDirection,WindDirectionDegrees,WindSpeedMPH,WindSpeedGustMPH,Humidity,HourlyPrecipIn,Conditions,Clouds,dailyrainin,SoftwareType,DateUTC
2013-03-03 00:00:00,58.0,41.0,30.26,ESE,112,7.0,8.0,54,0.00,,,0.00,TxWx,2013-03-03 06:00:00,
2013-03-03 00:04:00,58.0,41.0,30.26,ESE,112,9.0,9.0,54,0.00,,,0.00,TxWx,2013-03-03 06:04:00,
2013-03-03 00:05:00,58.0,42.0,30.26,East,90,6.0,6.0,55,0.00,,,0.00,TxWx,2013-03-03 06:05:00,
2013-03-03 00:06:00,58.0,42.0,30.26,ESE,112,6.0,6.0,56,0.00,,,0.00,TxWx,2013-03-03 06:06:00,
2013-03-03 00:11:00,58.0,42.0,30.26,SE,135,5.0,5.0,55,0.00,,,0.00,TxWx,2013-03-03 06:11:00,
2013-03-03 00:12:00,58.0,41.0,30.26,ESE,112,9.0,10.0,54,0.00,,,0.00,TxWx,2013-03-03 06:12:00,
2013-03-03 00:13:00,58.0,40.0,30.26,East,90,8.0,11.0,52,0.00,,,0.00,TxWx,2013-03-03 06:13:00,
2013-03-03 00:15:00,58.0,41.0,30.26,ESE,112,7.0,8.0,53,0.00,,,0.00,TxWx,2013-03-03 06:15:00,
2013-03-03 00:16:00,58.0,41.0,30.26,SE,135,8.0,8.0,53,0.00,,,0.00,TxWx,2013-03-03 06:16:00,
2013-03-03 00:18:00,58.0,41.0,30.26,ESE,112,8.0,8.0,53,0.00,,,0.00,TxWx,2013-03-03 06:18:00,
2013-03-03 00:19:00,58.0,41.0,30.26,ESE,112,8.0,9.0,53,0.00,,,0.00,TxWx,2013-03-03 06:19:00,
2013-03-03 00:21:00,58.0,41.0,30.26,ESE,112,5.0,5.0,53,0.00,,,0.00,TxWx,2013-03-03 06:21:00,
2013-03-03 00:22:00,58.0,41.0,30.26,ESE,112,5.0,5.0,53,0.00,,,0.00,TxWx,2013-03-03 06:22:00,
2013-03-03 00:25:00,58.0,40.0,30.26,ESE,112,8.0,8.0,52,0.00,,,0.00,TxWx,2013-03-03 06:25:00,
2013-03-03 00:26:00,58.0,40.0,30.26,SE,135,8.0,8.0,52,0.00,,,0.00,TxWx,2013-03-03 06:26:00,
2013-03-03 00:28:00,58.0,41.0,30.26,ESE,112,6.0,6.0,53,0.00,,,0.00,TxWx,2013-03-03 06:28:00,
2013-03-03 00:29:00,58.0,41.0,30.26,ESE,112,6.0,7.0,53,0.00,,,0.00,TxWx,2013-03-03 06:29:00,
2013-03-03 00:31:00,58.0,41.0,30.26,SE,135,8.0,8.0,54,0.00,,,0.00,TxWx,2013-03-03 06:31:00,
2013-03-03 00:32:00,58.0,41.0,30.26,ESE,112,10.0,10.0,54,0.00,,,0.00,TxWx,2013-03-03 06:32:00,
2013-03-03 00:33:00,58.0,41.0,30.26,ESE,112,9.0,9.0,54,0.00,,,0.00,TxWx,2013-03-03 06:33:00,
2013-03-03 00:34:00,58.0,41.0,30.26,ESE,112,6.0,6.0,54,0.00,,,0.00,TxWx,2013-03-03 06:34:00,
2013-03-03 00:38:00,58.0,41.0,30.26,East,90,9.0,9.0,53,0.00,,,0.00,TxWx,2013-03-03 06:38:00,
2013-03-03 00:40:00,58.0,42.0,30.26,ESE,112,10.0,10.0,55,0.00,,,0.00,TxWx,2013-03-03 06:40:00,
2013-03-03 00:41:00,58.0,41.0,30.26,ESE,112,6.0,6.0,54,0.00,,,0.00,TxWx,2013-03-03 06:41:00,
2013-03-03 00:43:00,58.0,41.0,30.26,SE,135,6.0,6.0,54,0.00,,,0.00,TxWx,2013-03-03 06:43:00,
2013-03-03 00:45:00,58.0,41.0,30.26,ESE,112,5.0,5.0,54,0.00,,,0.00,TxWx,2013-03-03 06:45:00,
2013-03-03 00:46:00,58.0,41.0,30.26,East,90,8.0,8.0,53,0.00,,,0.00,TxWx,2013-03-03 06:46:00,
2013-03-03 00:48:00,58.0,41.0,30.26,ESE,112,8.0,8.0,53,0.00,,,0.00,TxWx,2013-03-03 06:48:00,
2013-03-03 00:49:00,58.0,41.0,30.26,ESE,112,6.0,6.0,53,0.00,,,0.00,TxWx,2013-03-03 06:49:00,
2013-03-03 00:50:00,58.0,41.0,30.26,ESE,112,8.0,8.0,54,0.00,,,0.00,TxWx,2013-03-03 06:50:00,
2013-03-03 00:54:00,58.0,42.0,30.26,SE,135,5.0,5.0,55,0.00,,,0.00,TxWx,2013-03-03 06:54:00,
2013-03-03 00:55:00,58.0,42.0,30.26,South,180,3.0,3.0,55,0.00,,,0.00,TxWx,2013-03-03 06:55:00,
2013-03-03 00:56:00,58.0,41.0,30.26,South,180,3.0,3.0,54,0.00,,,0.00,TxWx,2013-03-03 06:56:00,
2013-03-03 01:01:00,57.0,41.0,30.26,SSE,157,4.0,4.0,55,0.00,,,0.00,TxWx,2013-03-03 07:01:00,
2013-03-03 01:02:00,57.0,41.0,30.26,SE,135,3.0,4.0,55,0.00,,,0.00,TxWx,2013-03-03 07:02:00,
2013-03-03 01:05:00,57.0,41.0,30.26,SE,135,4.0,4.0,56,0.00,,,0.00,TxWx,2013-03-03 07:05:00,
2013-03-03 01:06:00,57.0,41.0,30.26,SSE,157,3.0,3.0,56,0.00,,,0.00,TxWx,2013-03-03 07:06:00,
2013-03-03 01:07:00,57.0,42.0,30.26,South,180,4.0,5.0,57,0.00,,,0.00,TxWx,2013-03-03 07:07:00,
2013-03-03 01:09:00,56.0,41.0,30.26,SSW,202,4.0,5.0,57,0.00,,,0.00,TxWx,2013-03-03 07:09:00,
2013-03-03 01:12:00,56.0,41.0,30.26,South,180,4.0,4.0,58,0.00,,,0.00,TxWx,2013-03-03 07:12:00,
2013-03-03 01:13:00,56.0,41.0,30.26,South,180,4.0,4.0,58,0.00,,,0.00,TxWx,2013-03-03 07:13:00,
2013-03-03 01:14:00,57.0,43.0,30.26,SSE,157,4.0,5.0,59,0.00,,,0.00,TxWx,2013-03-03 07:14:00,
2013-03-03 01:15:00,56.0,42.0,30.26,SE,135,3.0,3.0,59,0.00,,,0.00,TxWx,2013-03-03 07:15:00,
2013-03-03 01:18:00,57.0,43.0,30.26,SE,135,2.0,3.0,59,0.00,,,0.00,TxWx,2013-03-03 07:18:00,
2013-03-03 01:19:00,57.0,43.0,30.26,SE,135,3.0,3.0,59,0.00,,,0.00,TxWx,2013-03-03 07:19:00,
2013-03-03 01:20:00,57.0,43.0,30.26,SE,135,5.0,6.0,59,0.00,,,0.00,TxWx,2013-03-03 07:20:00,
2013-03-03 01:25:00,56.0,42.0,30.26,SSE,157,2.0,3.0,59,0.00,,,0.00,TxWx,2013-03-03 07:25:00,
2013-03-03 01:26:00,56.0,42.0,30.26,South,180,3.0,3.0,59,0.00,,,0.00,TxWx,2013-03-03 07:26:00,
2013-03-03 01:27:00,56.0,42.0,30.26,SSE,157,4.0,4.0,59,0.00,,,0.00,TxWx,2013-03-03 07:27:00,
2013-03-03 01:31:00,56.0,42.0,30.26,SSE,157,3.0,4.0,60,0.00,,,0.00,TxWx,2013-03-03 07:31:00,
2013-03-03 01:32:00,56.0,42.0,30.26,SSE,157,3.0,3.0,60,0.00,,,0.00,TxWx,2013-03-03 07:32:00,
2013-03-03 01:36:00,56.0,42.0,30.26,SE,135,3.0,3.0,60,0.00,,,0.00,TxWx,2013-03-03 07:36:00,
2013-03-03 01:37:00,56.0,42.0,30.26,SSE,157,3.0,3.0,60,0.00,,,0.00,TxWx,2013-03-03 07:37:00,
2013-03-03 01:40:00,56.0,42.0,30.26,South,180,3.0,3.0,60,0.00,,,0.00,TxWx,2013-03-03 07:40:00,
2013-03-03 01:42:00,56.0,42.0,30.26,SSW,202,3.0,4.0,60,0.00,,,0.00,TxWx,2013-03-03 07:42:00,
2013-03-03 01:43:00,56.0,42.0,30.26,SSW,202,5.0,5.0,60,0.00,,,0.00,TxWx,2013-03-03 07:43:00,
2013-03-03 01:47:00,55.0,42.0,30.26,SSW,202,3.0,4.0,61,0.00,,,0.00,TxWx,2013-03-03 07:47:00,
2013-03-03 01:48:00,55.0,42.0,30.26,SSW,202,3.0,3.0,61,0.00,,,0.00,TxWx,2013-03-03 07:48:00,
2013-03-03 01:51:00,55.0,42.0,30.26,South,180,3.0,3.0,62,0.00,,,0.00,TxWx,2013-03-03 07:51:00,
2013-03-03 01:52:00,55.0,42.0,30.26,South,180,3.0,3.0,62,0.00,,,0.00,TxWx,2013-03-03 07:52:00,
2013-03-03 01:53:00,55.0,42.0,30.25,South,180,4.0,4.0,62,0.00,,,0.00,TxWx,2013-03-03 07:53:00,
2013-03-03 01:54:00,55.0,42.0,30.25,SSW,202,4.0,4.0,62,0.00,,,0.00,TxWx,2013-03-03 07:54:00,
2013-03-03 01:58:00,55.0,43.0,30.25,South,180,3.0,3.0,63,0.00,,,0.00,TxWx,2013-03-03 07:58:00,
2013-03-03 02:00:00,55.0,43.0,30.25,South,180,4.0,5.0,63,0.00,,,0.00,TxWx,2013-03-03 08:00:00,
2013-03-03 02:04:00,55.0,42.0,30.25,SSW,202,4.0,4.0,62,0.00,,,0.00,TxWx,2013-03-03 08:04:00,
2013-03-03 02:05:00,55.0,42.0,30.25,SSE,157,4.0,5.0,62,0.00,,,0.00,TxWx,2013-03-03 08:05:00,
2013-03-03 02:10:00,55.0,42.0,30.25,SSE,157,3.0,4.0,62,0.00,,,0.00,TxWx,2013-03-03 08:10:00,
2013-03-03 02:12:00,55.0,42.0,30.25,SSE,157,3.0,4.0,62,0.00,,,0.00,TxWx,2013-03-03 08:12:00,
2013-03-03 02:15:00,55.0,42.0,30.25,SSE,157,3.0,4.0,62,0.00,,,0.00,TxWx,2013-03-03 08:15:00,
2013-03-03 02:17:00,55.0,42.0,30.25,South,180,3.0,4.0,63,0.00,,,0.00,TxWx,2013-03-03 08:17:00,
2013-03-03 02:18:00,55.0,42.0,30.25,South,180,3.0,3.0,63,0.00,,,0.00,TxWx,2013-03-03 08:18:00,
2013-03-03 02:21:00,55.0,42.0,30.25,South,180,3.0,3.0,63,0.00,,,0.00,TxWx,2013-03-03 08:21:00,
2013-03-03 02:23:00,55.0,42.0,30.25,SSE,157,3.0,4.0,63,0.00,,,0.00,TxWx,2013-03-03 08:23:00,
2013-03-03 02:28:00,55.0,42.0,30.25,SSW,202,3.0,3.0,63,0.00,,,0.00,TxWx,2013-03-03 08:28:00,
2013-03-03 02:29:00,55.0,42.0,30.25,SSW,202,4.0,5.0,63,0.00,,,0.00,TxWx,2013-03-03 08:29:00,
2013-03-03 02:31:00,54.0,42.0,30.25,SSW,202,4.0,5.0,63,0.00,,,0.00,TxWx,2013-03-03 08:31:00,
2013-03-03 02:32:00,54.0,42.0,30.25,SW,225,5.0,5.0,63,0.00,,,0.00,TxWx,2013-03-03 08:32:00,
2013-03-03 02:34:00,54.0,42.0,30.25,SW,225,3.0,3.0,63,0.00,,,0.00,TxWx,2013-03-03 08:34:00,
2013-03-03 02:36:00,54.0,42.0,30.25,SW,225,3.0,3.0,64,0.00,,,0.00,TxWx,2013-03-03 08:36:00,
2013-03-03 02:39:00,54.0,42.0,30.25,SW,225,4.0,4.0,64,0.00,,,0.00,TxWx,2013-03-03 08:39:00,
2013-03-03 02:40:00,54.0,42.0,30.25,SW,225,4.0,4.0,64,0.00,,,0.00,TxWx,2013-03-03 08:40:00,
2013-03-03 02:42:00,54.0,42.0,30.24,SSW,202,5.0,5.0,64,0.00,,,0.00,TxWx,2013-03-03 08:42:00,
2013-03-03 02:43:00,54.0,42.0,30.24,SSW,202,5.0,5.0,64,0.00,,,0.00,TxWx,2013-03-03 08:43:00,
2013-03-03 02:45:00,54.0,42.0,30.24,SW,225,4.0,4.0,64,0.00,,,0.00,TxWx,2013-03-03 08:45:00,
2013-03-03 02:47:00,54.0,42.0,30.24,SW,225,3.0,4.0,64,0.00,,,0.00,TxWx,2013-03-03 08:47:00,
2013-03-03 02:48:00,54.0,42.0,30.24,SW,225,3.0,3.0,64,0.00,,,0.00,TxWx,2013-03-03 08:48:00,
2013-03-03 02:51:00,54.0,42.0,30.24,SW,225,3.0,3.0,64,0.00,,,0.00,TxWx,2013-03-03 08:51:00,
2013-03-03 02:53:00,54.0,42.0,30.24,SW,225,3.0,3.0,63,0.00,,,0.00,TxWx,2013-03-03 08:53:00,
2013-03-03 02:54:00,54.0,42.0,30.24,SW,225,3.0,4.0,63,0.00,,,0.00,TxWx,2013-03-03 08:54:00,
2013-03-03 02:55:00,54.0,41.0,30.24,SW,225,3.0,3.0,63,0.00,,,0.00,TxWx,2013-03-03 08:55:00,
2013-03-03 02:57:00,54.0,41.0,30.24,WSW,247,3.0,3.0,63,0.00,,,0.00,TxWx,2013-03-03 08:57:00,
2013-03-03 02:58:00,54.0,41.0,30.24,WSW,247,3.0,3.0,63,0.00,,,0.00,TxWx,2013-03-03 08:58:00,
2013-03-03 03:00:00,54.0,41.0,30.23,WSW,247,3.0,4.0,63,0.00,,,0.00,TxWx,2013-03-03 09:00:00,
2013-03-03 03:01:00,53.0,41.0,30.23,WSW,247,3.0,4.0,63,0.00,,,0.00,TxWx,2013-03-03 09:01:00,
2013-03-03 03:03:00,53.0,41.0,30.23,WSW,247,3.0,3.0,63,0.00,,,0.00,TxWx,2013-03-03 09:03:00,
2013-03-03 03:05:00,53.0,41.0,30.23,WSW,247,3.0,3.0,64,0.00,,,0.00,TxWx,2013-03-03 09:05:00,
2013-03-03 03:08:00,53.0,41.0,30.23,WSW,247,3.0,3.0,64,0.00,,,0.00,TxWx,2013-03-03 09:08:00,
2013-03-03 03:10:00,53.0,41.0,30.23,WSW,247,3.0,3.0,64,0.00,,,0.00,TxWx,2013-03-03 09:10:00,
2013-03-03 03:11:00,53.0,41.0,30.23,WSW,247,3.0,3.0,64,0.00,,,0.00,TxWx,2013-03-03 09:11:00,
2013-03-03 03:15:00,52.0,40.0,30.24,West,270,3.0,3.0,64,0.00,,,0.00,TxWx,2013-03-03 09:15:00,
2013-03-03 03:16:00,53.0,41.0,30.24,West,270,2.0,2.0,65,0.00,,,0.00,TxWx,2013-03-03 09:16:00,
2013-03-03 03:17:00,53.0,42.0,30.23,WSW,247,2.0,2.0,65,0.00,,,0.00,TxWx,2013-03-03 09:17:00,
2013-03-03 03:21:00,53.0,41.0,30.23,West,270,3.0,3.0,65,0.00,,,0.00,TxWx,2013-03-03 09:21:00,
2013-03-03 03:22:00,53.0,41.0,30.23,West,270,3.0,4.0,64,0.00,,,0.00,TxWx,2013-03-03 09:22:00,
2013-03-03 03:25:00,52.0,40.0,30.23,WSW,247,3.0,3.0,64,0.00,,,0.00,TxWx,2013-03-03 09:25:00,
2013-03-03 03:27:00,52.0,41.0,30.23,West,270,3.0,3.0,65,0.00,,,0.00,TxWx,2013-03-03 09:27:00,
2013-03-03 03:28:00,52.0,40.0,30.23,WSW,247,4.0,4.0,65,0.00,,,0.00,TxWx,2013-03-03 09:28:00,
2013-03-03 03:31:00,52.0,40.0,30.23,West,270,5.0,5.0,65,0.00,,,0.00,TxWx,2013-03-03 09:31:00,
2013-03-03 03:32:00,52.0,40.0,30.23,West,270,4.0,4.0,65,0.00,,,0.00,TxWx,2013-03-03 09:32:00,
2013-03-03 03:34:00,52.0,41.0,30.23,West,270,3.0,3.0,65,0.00,,,0.00,TxWx,2013-03-03 09:34:00,
2013-03-03 03:36:00,51.0,40.0,30.23,West,270,5.0,5.0,66,0.00,,,0.00,TxWx,2013-03-03 09:36:00,
2013-03-03 03:37:00,51.0,40.0,30.23,West,270,4.0,5.0,66,0.00,,,0.00,TxWx,2013-03-03 09:37:00,
2013-03-03 03:39:00,51.0,40.0,30.23,West,270,3.0,3.0,66,0.00,,,0.00,TxWx,2013-03-03 09:39:00,
2013-03-03 03:41:00,51.0,40.0,30.23,WSW,247,3.0,3.0,67,0.00,,,0.00,TxWx,2013-03-03 09:41:00,
2013-03-03 03:44:00,52.0,41.0,30.23,West,270,3.0,3.0,67,0.00,,,0.00,TxWx,2013-03-03 09:44:00,
2013-03-03 03:46:00,52.0,41.0,30.23,West,270,3.0,4.0,67,0.00,,,0.00,TxWx,2013-03-03 09:46:00,
2013-03-03 03:47:00,52.0,41.0,30.23,West,270,3.0,4.0,66,0.00,,,0.00,TxWx,2013-03-03 09:47:00,
2013-03-03 03:50:00,52.0,41.0,30.23,West,270,3.0,3.0,66,0.00,,,0.00,TxWx,2013-03-03 09:50:00,
2013-03-03 03:52:00,52.0,41.0,30.23,West,270,3.0,3.0,65,0.00,,,0.00,TxWx,2013-03-03 09:52:00,
2013-03-03 03:53:00,52.0,41.0,30.23,West,270,3.0,3.0,66,0.00,,,0.00,TxWx,2013-03-03 09:53:00,
2013-03-03 03:55:00,52.0,41.0,30.23,West,270,3.0,3.0,66,0.00,,,0.00,TxWx,2013-03-03 09:55:00,
2013-03-03 03:57:00,52.0,41.0,30.23,WSW,247,1.0,2.0,67,0.00,,,0.00,TxWx,2013-03-03 09:57:00,
2013-03-03 03:59:00,52.0,41.0,30.23,WSW,247,2.0,2.0,67,0.00,,,0.00,TxWx,2013-03-03 09:59:00,
2013-03-03 04:00:00,52.0,41.0,30.23,WSW,247,2.0,3.0,67,0.00,,,0.00,TxWx,2013-03-03 10:00:00,
2013-03-03 04:03:00,52.0,41.0,30.23,West,270,3.0,3.0,67,0.00,,,0.00,TxWx,2013-03-03 10:03:00,
2013-03-03 04:06:00,52.0,41.0,30.23,West,270,3.0,3.0,65,0.00,,,0.00,TxWx,2013-03-03 10:06:00,
2013-03-03 04:09:00,51.0,39.0,30.23,West,270,5.0,5.0,65,0.00,,,0.00,TxWx,2013-03-03 10:09:00,
2013-03-03 04:12:00,50.0,38.0,30.23,West,270,5.0,5.0,65,0.00,,,0.00,TxWx,2013-03-03 10:12:00,
2013-03-03 04:14:00,49.0,38.0,30.23,West,270,5.0,5.0,65,0.00,,,0.00,TxWx,2013-03-03 10:14:00,
2013-03-03 04:15:00,49.0,38.0,30.23,West,270,5.0,5.0,66,0.00,,,0.00,TxWx,2013-03-03 10:15:00,
2013-03-03 04:17:00,49.0,38.0,30.23,West,270,4.0,4.0,67,0.00,,,0.00,TxWx,2013-03-03 10:17:00,
2013-03-03 04:19:00,48.0,38.0,30.23,West,270,5.0,5.0,67,0.00,,,0.00,TxWx,2013-03-03 10:19:00,
2013-03-03 04:21:00,48.0,38.0,30.23,West,270,4.0,4.0,68,0.00,,,0.00,TxWx,2013-03-03 10:21:00,
2013-03-03 04:23:00,48.0,38.0,30.23,West,270,3.0,3.0,69,0.00,,,0.00,TxWx,2013-03-03 10:23:00,
2013-03-03 04:25:00,48.0,38.0,30.23,West,270,5.0,5.0,70,0.00,,,0.00,TxWx,2013-03-03 10:25:00,
2013-03-03 04:27:00,47.0,38.0,30.23,WSW,247,3.0,3.0,70,0.00,,,0.00,TxWx,2013-03-03 10:27:00,
2013-03-03 04:29:00,47.0,38.0,30.23,West,270,5.0,6.0,71,0.00,,,0.00,TxWx,2013-03-03 10:29:00,
2013-03-03 04:30:00,47.0,38.0,30.23,WNW,292,3.0,4.0,71,0.00,,,0.00,TxWx,2013-03-03 10:30:00,
2013-03-03 04:32:00,47.0,38.0,30.23,West,270,4.0,5.0,71,0.00,,,0.00,TxWx,2013-03-03 10:32:00,
2013-03-03 04:34:00,47.0,38.0,30.23,West,270,5.0,5.0,71,0.00,,,0.00,TxWx,2013-03-03 10:34:00,
2013-03-03 04:35:00,47.0,38.0,30.23,West,270,6.0,6.0,71,0.00,,,0.00,TxWx,2013-03-03 10:35:00,
2013-03-03 04:38:00,46.0,37.0,30.23,West,270,6.0,6.0,72,0.00,,,0.00,TxWx,2013-03-03 10:38:00,
2013-03-03 04:41:00,46.0,37.0,30.23,West,270,6.0,6.0,71,0.00,,,0.00,TxWx,2013-03-03 10:41:00,
2013-03-03 04:43:00,46.0,37.0,30.23,West,270,5.0,5.0,71,0.00,,,0.00,TxWx,2013-03-03 10:43:00,
2013-03-03 04:44:00,46.0,37.0,30.23,WNW,292,5.0,5.0,71,0.00,,,0.00,TxWx,2013-03-03 10:44:00,
2013-03-03 04:46:00,46.0,37.0,30.23,West,270,5.0,6.0,71,0.00,,,0.00,TxWx,2013-03-03 10:46:00,
2013-03-03 04:49:00,46.0,37.0,30.23,West,270,5.0,5.0,71,0.00,,,0.00,TxWx,2013-03-03 10:49:00,
2013-03-03 04:50:00,46.0,37.0,30.23,West,270,5.0,6.0,71,0.00,,,0.00,TxWx,2013-03-03 10:50:00,
2013-03-03 04:52:00,46.0,37.0,30.23,WNW,292,5.0,5.0,71,0.00,,,0.00,TxWx,2013-03-03 10:52:00,
2013-03-03 04:54:00,46.0,37.0,30.22,WNW,292,6.0,6.0,71,0.00,,,0.00,TxWx,2013-03-03 10:54:00,
2013-03-03 04:57:00,46.0,37.0,30.23,WSW,247,5.0,5.0,71,0.00,,,0.00,TxWx,2013-03-03 10:57:00,
2013-03-03 04:58:00,46.0,37.0,30.23,WNW,292,5.0,5.0,71,0.00,,,0.00,TxWx,2013-03-03 10:58:00,
2013-03-03 05:00:00,46.0,37.0,30.23,West,270,5.0,5.0,71,0.00,,,0.00,TxWx,2013-03-03 11:00:00,
2013-03-03 05:03:00,46.0,37.0,30.22,West,270,5.0,6.0,71,0.00,,,0.00,TxWx,2013-03-03 11:03:00,
2013-03-03 05:04:00,46.0,37.0,30.22,West,270,6.0,6.0,70,0.00,,,0.00,TxWx,2013-03-03 11:04:00,
2013-03-03 05:06:00,46.0,37.0,30.22,WNW,292,5.0,5.0,70,0.00,,,0.00,TxWx,2013-03-03 11:06:00,
2013-03-03 05:08:00,46.0,37.0,30.22,West,270,5.0,6.0,70,0.00,,,0.00,TxWx,2013-03-03 11:08:00,
2013-03-03 05:09:00,46.0,37.0,30.22,West,270,5.0,5.0,70,0.00,,,0.00,TxWx,2013-03-03 11:09:00,
2013-03-03 05:11:00,46.0,37.0,30.22,WSW,247,4.0,4.0,70,0.00,,,0.00,TxWx,2013-03-03 11:11:00,
2013-03-03 05:13:00,46.0,37.0,30.22,West,270,5.0,5.0,70,0.00,,,0.00,TxWx,2013-03-03 11:13:00,
2013-03-03 05:14:00,46.0,37.0,30.22,WSW,247,3.0,4.0,70,0.00,,,0.00,TxWx,2013-03-03 11:14:00,
2013-03-03 05:15:00,46.0,37.0,30.22,West,270,3.0,4.0,70,0.00,,,0.00,TxWx,2013-03-03 11:15:00,
2013-03-03 05:17:00,46.0,37.0,30.22,West,270,4.0,5.0,70,0.00,,,0.00,TxWx,2013-03-03 11:17:00,
2013-03-03 05:20:00,46.0,37.0,30.22,West,270,5.0,5.0,70,0.00,,,0.00,TxWx,2013-03-03 11:20:00,
2013-03-03 05:22:00,46.0,37.0,30.22,West,270,4.0,4.0,70,0.00,,,0.00,TxWx,2013-03-03 11:22:00,
2013-03-03 05:23:00,46.0,37.0,30.22,West,270,6.0,6.0,70,0.00,,,0.00,TxWx,2013-03-03 11:23:00,
2013-03-03 05:26:00,46.0,37.0,30.22,WSW,247,6.0,7.0,70,0.00,,,0.00,TxWx,2013-03-03 11:26:00,
2013-03-03 05:27:00,46.0,37.0,30.22,West,270,8.0,8.0,70,0.00,,,0.00,TxWx,2013-03-03 11:27:00,
2013-03-03 05:29:00,46.0,37.0,30.22,West,270,6.0,6.0,70,0.00,,,0.00,TxWx,2013-03-03 11:29:00,
2013-03-03 05:30:00,46.0,37.0,30.22,West,270,6.0,6.0,70,0.00,,,0.00,TxWx,2013-03-03 11:30:00,
2013-03-03 05:31:00,46.0,36.0,30.22,West,270,7.0,7.0,69,0.00,,,0.00,TxWx,2013-03-03 11:31:00,
2013-03-03 05:33:00,46.0,36.0,30.22,WSW,247,4.0,4.0,69,0.00,,,0.00,TxWx,2013-03-03 11:33:00,
2013-03-03 05:34:00,46.0,36.0,30.22,WSW,247,5.0,5.0,69,0.00,,,0.00,TxWx,2013-03-03 11:34:00,
2013-03-03 05:37:00,46.0,36.0,30.22,West,270,7.0,7.0,69,0.00,,,0.00,TxWx,2013-03-03 11:37:00,
2013-03-03 05:40:00,46.0,36.0,30.22,WSW,247,6.0,6.0,69,0.00,,,0.00,TxWx,2013-03-03 11:40:00,
2013-03-03 05:42:00,46.0,36.0,30.22,WSW,247,5.0,5.0,69,0.00,,,0.00,TxWx,2013-03-03 11:42:00,
2013-03-03 05:45:00,46.0,36.0,30.22,West,270,6.0,7.0,69,0.00,,,0.00,TxWx,2013-03-03 11:45:00,
2013-03-03 05:46:00,46.0,36.0,30.22,West,270,5.0,5.0,69,0.00,,,0.00,TxWx,2013-03-03 11:46:00,
2013-03-03 05:48:00,46.0,36.0,30.23,West,270,5.0,5.0,69,0.00,,,0.00,TxWx,2013-03-03 11:48:00,
2013-03-03 05:51:00,46.0,36.0,30.23,WNW,292,6.0,6.0,69,0.00,,,0.00,TxWx,2013-03-03 11:51:00,
2013-03-03 05:53:00,46.0,36.0,30.23,WNW,292,6.0,6.0,69,0.00,,,0.00,TxWx,2013-03-03 11:53:00,
2013-03-03 05:56:00,46.0,36.0,30.23,WNW,292,5.0,5.0,68,0.00,,,0.00,TxWx,2013-03-03 11:56:00,
2013-03-03 05:58:00,46.0,36.0,30.23,West,270,6.0,6.0,68,0.00,,,0.00,TxWx,2013-03-03 11:58:00,
2013-03-03 05:59:00,46.0,36.0,30.23,West,270,6.0,8.0,68,0.00,,,0.00,TxWx,2013-03-03 11:59:00,
2013-03-03 06:01:00,46.0,36.0,30.23,West,270,5.0,5.0,69,0.00,,,0.00,TxWx,2013-03-03 12:01:00,
2013-03-03 06:03:00,46.0,36.0,30.23,West,270,5.0,6.0,69,0.00,,,0.00,TxWx,2013-03-03 12:03:00,
2013-03-03 06:04:00,46.0,36.0,30.23,WSW,247,7.0,7.0,69,0.00,,,0.00,TxWx,2013-03-03 12:04:00,
2013-03-03 06:06:00,46.0,36.0,30.23,WSW,247,4.0,5.0,69,0.00,,,0.00,TxWx,2013-03-03 12:06:00,
2013-03-03 06:09:00,46.0,36.0,30.23,West,270,6.0,7.0,69,0.00,,,0.00,TxWx,2013-03-03 12:09:00,
2013-03-03 06:12:00,46.0,36.0,30.23,West,270,6.0,7.0,69,0.00,,,0.00,TxWx,2013-03-03 12:12:00,
2013-03-03 06:15:00,46.0,36.0,30.23,WSW,247,5.0,6.0,69,0.00,,,0.00,TxWx,2013-03-03 12:15:00,
2013-03-03 06:18:00,46.0,36.0,30.23,West,270,6.0,7.0,69,0.00,,,0.00,TxWx,2013-03-03 12:18:00,
2013-03-03 06:20:00,46.0,37.0,30.23,West,270,6.0,6.0,70,0.00,,,0.00,TxWx,2013-03-03 12:20:00,
2013-03-03 06:21:00,46.0,36.0,30.23,West,270,6.0,6.0,69,0.00,,,0.00,TxWx,2013-03-03 12:21:00,
2013-03-03 06:23:00,46.0,36.0,30.23,West,270,6.0,6.0,69,0.00,,,0.00,TxWx,2013-03-03 12:23:00,
2013-03-03 06:26:00,46.0,36.0,30.23,West,270,6.0,6.0,69,0.00,,,0.00,TxWx,2013-03-03 12:26:00,
2013-03-03 06:27:00,46.0,36.0,30.23,West,270,6.0,7.0,69,0.00,,,0.00,TxWx,2013-03-03 12:27:00,
2013-03-03 06:28:00,46.0,36.0,30.23,West,270,5.0,5.0,69,0.00,,,0.00,TxWx,2013-03-03 12:28:00,
2013-03-03 06:32:00,46.0,36.0,30.23,WNW,292,5.0,6.0,69,0.00,,,0.00,TxWx,2013-03-03 12:32:00,
2013-03-03 06:34:00,46.0,36.0,30.24,West,270,5.0,5.0,69,0.00,,,0.00,TxWx,2013-03-03 12:34:00,
2013-03-03 06:37:00,46.0,36.0,30.24,West,270,6.0,6.0,69,0.00,,,0.00,TxWx,2013-03-03 12:37:00,
2013-03-03 06:39:00,46.0,36.0,30.24,West,270,6.0,6.0,69,0.00,,,0.00,TxWx,2013-03-03 12:39:00,
2013-03-03 06:40:00,46.0,36.0,30.23,West,270,6.0,6.0,69,0.00,,,0.00,TxWx,2013-03-03 12:40:00,
2013-03-03 06:45:00,46.0,36.0,30.24,West,270,5.0,6.0,69,0.00,,,0.00,TxWx,2013-03-03 12:45:00,
2013-03-03 06:46:00,46.0,36.0,30.24,West,270,5.0,6.0,69,0.00,,,0.00,TxWx,2013-03-03 12:46:00,
2013-03-03 06:49:00,46.0,36.0,30.23,West,270,5.0,6.0,69,0.00,,,0.00,TxWx,2013-03-03 12:49:00,
2013-03-03 06:50:00,46.0,36.0,30.23,West,270,6.0,6.0,69,0.00,,,0.00,TxWx,2013-03-03 12:50:00,
2013-03-03 06:52:00,46.0,36.0,30.23,West,270,5.0,6.0,69,0.00,,,0.00,TxWx,2013-03-03 12:52:00,
2013-03-03 06:56:00,46.0,36.0,30.23,WSW,247,6.0,7.0,69,0.00,,,0.00,TxWx,2013-03-03 12:56:00,
2013-03-03 06:57:00,46.0,36.0,30.23,West,270,5.0,5.0,69,0.00,,,0.00,TxWx,2013-03-03 12:57:00,
2013-03-03 07:02:00,46.0,36.0,30.23,West,270,5.0,5.0,69,0.00,,,0.00,TxWx,2013-03-03 13:02:00,
2013-03-03 07:03:00,46.0,36.0,30.24,WSW,247,5.0,6.0,69,0.00,,,0.00,TxWx,2013-03-03 13:03:00,
2013-03-03 07:07:00,46.0,37.0,30.24,West,270,5.0,6.0,70,0.00,,,0.00,TxWx,2013-03-03 13:07:00,
2013-03-03 07:08:00,46.0,37.0,30.24,West,270,5.0,6.0,70,0.00,,,0.00,TxWx,2013-03-03 13:08:00,
2013-03-03 07:12:00,46.0,36.0,30.24,West,270,5.0,6.0,69,0.00,,,0.00,TxWx,2013-03-03 13:12:00,
2013-03-03 07:13:00,46.0,36.0,30.24,WSW,247,6.0,6.0,69,0.00,,,0.00,TxWx,2013-03-03 13:13:00,
2013-03-03 07:14:00,46.0,36.0,30.24,WSW,247,5.0,5.0,69,0.00,,,0.00,TxWx,2013-03-03 13:14:00,
2013-03-03 07:17:00,47.0,37.0,30.24,West,270,4.0,5.0,69,0.00,,,0.00,TxWx,2013-03-03 13:17:00,
2013-03-03 07:19:00,47.0,37.0,30.24,West,270,5.0,5.0,69,0.00,,,0.00,TxWx,2013-03-03 13:19:00,
2013-03-03 07:21:00,47.0,37.0,30.24,WSW,247,5.0,5.0,69,0.00,,,0.00,TxWx,2013-03-03 13:21:00,
2013-03-03 07:24:00,47.0,37.0,30.24,WSW,247,5.0,5.0,69,0.00,,,0.00,TxWx,2013-03-03 13:24:00,
2013-03-03 07:25:00,47.0,37.0,30.24,West,270,5.0,5.0,69,0.00,,,0.00,TxWx,2013-03-03 13:25:00,
2013-03-03 07:29:00,47.0,37.0,30.24,West,270,4.0,4.0,69,0.00,,,0.00,TxWx,2013-03-03 13:29:00,
2013-03-03 07:30:00,47.0,37.0,30.24,West,270,5.0,5.0,69,0.00,,,0.00,TxWx,2013-03-03 13:30:00,
2013-03-03 07:34:00,48.0,38.0,30.25,WSW,247,5.0,5.0,69,0.00,,,0.00,TxWx,2013-03-03 13:34:00,
2013-03-03 07:35:00,48.0,38.0,30.24,WSW,247,5.0,5.0,68,0.00,,,0.00,TxWx,2013-03-03 13:35:00,
2013-03-03 07:39:00,48.0,38.0,30.24,West,270,6.0,6.0,68,0.00,,,0.00,TxWx,2013-03-03 13:39:00,
2013-03-03 07:40:00,48.0,38.0,30.25,West,270,5.0,5.0,68,0.00,,,0.00,TxWx,2013-03-03 13:40:00,
2013-03-03 07:41:00,48.0,38.0,30.25,West,270,6.0,6.0,68,0.00,,,0.00,TxWx,2013-03-03 13:41:00,
2013-03-03 07:45:00,48.0,38.0,30.25,WSW,247,5.0,5.0,67,0.00,,,0.00,TxWx,2013-03-03 13:45:00,
2013-03-03 07:46:00,49.0,39.0,30.25,West,270,6.0,6.0,67,0.00,,,0.00,TxWx,2013-03-03 13:46:00,
2013-03-03 07:47:00,49.0,39.0,30.25,SW,225,6.0,6.0,67,0.00,,,0.00,TxWx,2013-03-03 13:47:00,
2013-03-03 07:50:00,49.0,39.0,30.25,WSW,247,4.0,5.0,67,0.00,,,0.00,TxWx,2013-03-03 13:50:00,
2013-03-03 07:52:00,49.0,39.0,30.25,West,270,6.0,6.0,68,0.00,,,0.00,TxWx,2013-03-03 13:52:00,
2013-03-03 07:54:00,50.0,39.0,30.25,West,270,7.0,8.0,67,0.00,,,0.00,TxWx,2013-03-03 13:54:00,
2013-03-03 07:57:00,50.0,39.0,30.25,WSW,247,6.0,6.0,67,0.00,,,0.00,TxWx,2013-03-03 13:57:00,
2013-03-03 07:59:00,50.0,39.0,30.25,WSW,247,4.0,4.0,67,0.00,,,0.00,TxWx,2013-03-03 13:59:00,
2013-03-03 08:00:00,50.0,39.0,30.25,WNW,292,5.0,5.0,67,0.00,,,0.00,TxWx,2013-03-03 14:00:00,
2013-03-03 08:02:00,51.0,40.0,30.25,WSW,247,5.0,5.0,66,0.00,,,0.00,TxWx,2013-03-03 14:02:00,
2013-03-03 08:03:00,51.0,40.0,30.25,WSW,247,7.0,8.0,66,0.00,,,0.00,TxWx,2013-03-03 14:03:00,
2013-03-03 08:06:00,51.0,40.0,30.25,West,270,5.0,6.0,66,0.00,,,0.00,TxWx,2013-03-03 14:06:00,
2013-03-03 08:09:00,51.0,40.0,30.25,West,270,5.0,6.0,66,0.00,,,0.00,TxWx,2013-03-03 14:09:00,
2013-03-03 08:10:00,52.0,41.0,30.25,WSW,247,5.0,6.0,65,0.00,,,0.00,TxWx,2013-03-03 14:10:00,
2013-03-03 08:12:00,52.0,41.0,30.25,WSW,247,5.0,6.0,65,0.00,,,0.00,TxWx,2013-03-03 14:12:00,
2013-03-03 08:13:00,52.0,40.0,30.26,WSW,247,9.0,9.0,65,0.00,,,0.00,TxWx,2013-03-03 14:13:00,
2013-03-03 08:15:00,52.0,40.0,30.26,WSW,247,6.0,6.0,65,0.00,,,0.00,TxWx,2013-03-03 14:15:00,
2013-03-03 08:20:00,52.0,40.0,30.25,WSW,247,5.0,5.0,65,0.00,,,0.00,TxWx,2013-03-03 14:20:00,
2013-03-03 08:22:00,52.0,40.0,30.26,WSW,247,6.0,6.0,64,0.00,,,0.00,TxWx,2013-03-03 14:22:00,
2013-03-03 08:24:00,53.0,41.0,30.26,WSW,247,8.0,8.0,64,0.00,,,0.00,TxWx,2013-03-03 14:24:00,
2013-03-03 08:26:00,53.0,41.0,30.26,WSW,247,10.0,10.0,64,0.00,,,0.00,TxWx,2013-03-03 14:26:00,
2013-03-03 08:27:00,53.0,41.0,30.26,SSW,202,4.0,5.0,64,0.00,,,0.00,TxWx,2013-03-03 14:27:00,
2013-03-03 08:28:00,53.0,41.0,30.26,WSW,247,6.0,6.0,63,0.00,,,0.00,TxWx,2013-03-03 14:28:00,
2013-03-03 08:30:00,53.0,41.0,30.26,WSW,247,4.0,4.0,64,0.00,,,0.00,TxWx,2013-03-03 14:30:00,
2013-03-03 08:32:00,53.0,40.0,30.26,West,270,9.0,9.0,62,0.00,,,0.00,TxWx,2013-03-03 14:32:00,
2013-03-03 08:34:00,53.0,40.0,30.26,SW,225,10.0,10.0,62,0.00,,,0.00,TxWx,2013-03-03 14:34:00,
2013-03-03 08:35:00,53.0,40.0,30.25,West,270,8.0,8.0,62,0.00,,,0.00,TxWx,2013-03-03 14:35:00,
2013-03-03 08:37:00,53.0,40.0,30.26,West,270,5.0,5.0,62,0.00,,,0.00,TxWx,2013-03-03 14:37:00,
2013-03-03 08:39:00,54.0,41.0,30.26,WSW,247,9.0,9.0,62,0.00,,,0.00,TxWx,2013-03-03 14:39:00,
2013-03-03 08:41:00,54.0,41.0,30.26,West,270,6.0,7.0,61,0.00,,,0.00,TxWx,2013-03-03 14:41:00,
2013-03-03 08:42:00,54.0,41.0,30.26,WSW,247,7.0,7.0,62,0.00,,,0.00,TxWx,2013-03-03 14:42:00,
2013-03-03 08:45:00,54.0,41.0,30.26,WSW,247,6.0,6.0,61,0.00,,,0.00,TxWx,2013-03-03 14:45:00,
2013-03-03 08:47:00,55.0,41.0,30.26,WSW,247,5.0,6.0,60,0.00,,,0.00,TxWx,2013-03-03 14:47:00,
2013-03-03 08:48:00,55.0,41.0,30.26,West,270,5.0,5.0,60,0.00,,,0.00,TxWx,2013-03-03 14:48:00,
2013-03-03 08:51:00,55.0,41.0,30.26,WSW,247,4.0,4.0,60,0.00,,,0.00,TxWx,2013-03-03 14:51:00,
2013-03-03 08:53:00,55.0,41.0,30.26,WSW,247,4.0,4.0,59,0.00,,,0.00,TxWx,2013-03-03 14:53:00,
2013-03-03 08:54:00,55.0,41.0,30.26,West,270,6.0,6.0,59,0.00,,,0.00,TxWx,2013-03-03 14:54:00,
2013-03-03 08:55:00,55.0,41.0,30.26,West,270,6.0,6.0,59,0.00,,,0.00,TxWx,2013-03-03 14:55:00,
2013-03-03 08:56:00,56.0,42.0,30.26,West,270,6.0,6.0,59,0.00,,,0.00,TxWx,2013-03-03 14:56:00,
2013-03-03 08:58:00,56.0,42.0,30.26,WSW,247,6.0,6.0,59,0.00,,,0.00,TxWx,2013-03-03 14:58:00,
2013-03-03 08:59:00,56.0,41.0,30.26,West,270,5.0,5.0,58,0.00,,,0.00,TxWx,2013-03-03 14:59:00,
2013-03-03 09:01:00,56.0,41.0,30.26,WSW,247,5.0,5.0,58,0.00,,,0.00,TxWx,2013-03-03 15:01:00,
2013-03-03 09:04:00,56.0,41.0,30.26,SW,225,7.0,7.0,58,0.00,,,0.00,TxWx,2013-03-03 15:04:00,
2013-03-03 09:06:00,57.0,42.0,30.26,WSW,247,6.0,6.0,57,0.00,,,0.00,TxWx,2013-03-03 15:06:00,
2013-03-03 09:07:00,57.0,42.0,30.26,WSW,247,8.0,8.0,57,0.00,,,0.00,TxWx,2013-03-03 15:07:00,
2013-03-03 09:08:00,57.0,42.0,30.26,West,270,6.0,6.0,57,0.00,,,0.00,TxWx,2013-03-03 15:08:00,
2013-03-03 09:10:00,57.0,42.0,30.26,SSW,202,5.0,5.0,57,0.00,,,0.00,TxWx,2013-03-03 15:10:00,
2013-03-03 09:12:00,57.0,41.0,30.26,WSW,247,5.0,5.0,56,0.00,,,0.00,TxWx,2013-03-03 15:12:00,
2013-03-03 09:13:00,57.0,41.0,30.26,WSW,247,5.0,5.0,56,0.00,,,0.00,TxWx,2013-03-03 15:13:00,
2013-03-03 09:15:00,57.0,41.0,30.26,WSW,247,6.0,6.0,56,0.00,,,0.00,TxWx,2013-03-03 15:15:00,
2013-03-03 09:16:00,57.0,41.0,30.26,SW,225,6.0,6.0,56,0.00,,,0.00,TxWx,2013-03-03 15:16:00,
2013-03-03 09:18:00,58.0,42.0,30.26,WNW,292,5.0,5.0,56,0.00,,,0.00,TxWx,2013-03-03 15:18:00,
2013-03-03 09:20:00,58.0,42.0,30.26,WSW,247,5.0,6.0,55,0.00,,,0.00,TxWx,2013-03-03 15:20:00,
2013-03-03 09:22:00,58.0,42.0,30.26,SW,225,5.0,5.0,55,0.00,,,0.00,TxWx,2013-03-03 15:22:00,
2013-03-03 09:23:00,59.0,43.0,30.25,SSW,202,6.0,6.0,55,0.00,,,0.00,TxWx,2013-03-03 15:23:00,
2013-03-03 09:24:00,59.0,42.0,30.25,SW,225,8.0,8.0,54,0.00,,,0.00,TxWx,2013-03-03 15:24:00,
2013-03-03 09:25:00,59.0,42.0,30.26,SW,225,7.0,7.0,54,0.00,,,0.00,TxWx,2013-03-03 15:25:00,
2013-03-03 09:29:00,59.0,42.0,30.25,WSW,247,6.0,7.0,54,0.00,,,0.00,TxWx,2013-03-03 15:29:00,
2013-03-03 09:30:00,59.0,42.0,30.26,SW,225,4.0,4.0,54,0.00,,,0.00,TxWx,2013-03-03 15:30:00,
2013-03-03 09:31:00,59.0,42.0,30.25,SW,225,3.0,3.0,54,0.00,,,0.00,TxWx,2013-03-03 15:31:00,
2013-03-03 09:36:00,60.0,43.0,30.25,SW,225,2.0,3.0,54,0.00,,,0.00,TxWx,2013-03-03 15:36:00,
2013-03-03 09:37:00,60.0,43.0,30.25,SW,225,4.0,5.0,53,0.00,,,0.00,TxWx,2013-03-03 15:37:00,
2013-03-03 09:41:00,60.0,43.0,30.25,South,180,6.0,8.0,53,0.00,,,0.00,TxWx,2013-03-03 15:41:00,
2013-03-03 09:42:00,60.0,43.0,30.25,SSE,157,6.0,6.0,53,0.00,,,0.00,TxWx,2013-03-03 15:42:00,
2013-03-03 09:47:00,61.0,43.0,30.25,South,180,2.0,2.0,52,0.00,,,0.00,TxWx,2013-03-03 15:47:00,
2013-03-03 09:49:00,62.0,44.0,30.25,WSW,247,5.0,5.0,53,0.00,,,0.00,TxWx,2013-03-03 15:49:00,
2013-03-03 09:52:00,62.0,44.0,30.25,SSE,157,7.0,8.0,51,0.00,,,0.00,TxWx,2013-03-03 15:52:00,
2013-03-03 09:54:00,62.0,44.0,30.25,SSW,202,2.0,3.0,51,0.00,,,0.00,TxWx,2013-03-03 15:54:00,
2013-03-03 09:57:00,63.0,45.0,30.25,South,180,3.0,3.0,51,0.00,,,0.00,TxWx,2013-03-03 15:57:00,
2013-03-03 09:59:00,63.0,44.0,30.25,South,180,7.0,7.0,51,0.00,,,0.00,TxWx,2013-03-03 15:59:00,
2013-03-03 10:00:00,63.0,44.0,30.25,SSE,157,8.0,9.0,51,0.00,,,0.00,TxWx,2013-03-03 16:00:00,
2013-03-03 10:02:00,63.0,44.0,30.24,SSW,202,6.0,7.0,51,0.00,,,0.00,TxWx,2013-03-03 16:02:00,
2013-03-03 10:05:00,63.0,44.0,30.24,SW,225,5.0,5.0,50,0.00,,,0.00,TxWx,2013-03-03 16:05:00,
2013-03-03 10:08:00,64.0,44.0,30.24,SSE,157,8.0,8.0,49,0.00,,,0.00,TxWx,2013-03-03 16:08:00,
2013-03-03 10:11:00,64.0,44.0,30.24,SSW,202,9.0,9.0,49,0.00,,,0.00,TxWx,2013-03-03 16:11:00,
2013-03-03 10:14:00,64.0,44.0,30.24,SSW,202,13.0,13.0,48,0.00,,,0.00,TxWx,2013-03-03 16:14:00,
2013-03-03 10:20:00,65.0,44.0,30.23,SSW,202,13.0,13.0,47,0.00,,,0.00,TxWx,2013-03-03 16:20:00,
2013-03-03 10:25:00,65.0,44.0,30.23,SSW,202,13.0,13.0,47,0.00,,,0.00,TxWx,2013-03-03 16:25:00,
2013-03-03 10:26:00,65.0,44.0,30.23,SW,225,6.0,7.0,47,0.00,,,0.00,TxWx,2013-03-03 16:26:00,
2013-03-03 10:31:00,65.0,44.0,30.23,SW,225,8.0,11.0,46,0.00,,,0.00,TxWx,2013-03-03 16:31:00,
2013-03-03 10:32:00,65.0,44.0,30.23,SSW,202,14.0,14.0,46,0.00,,,0.00,TxWx,2013-03-03 16:32:00,
2013-03-03 10:36:00,65.0,44.0,30.23,SSW,202,6.0,8.0,47,0.00,,,0.00,TxWx,2013-03-03 16:36:00,
2013-03-03 10:37:00,65.0,44.0,30.23,South,180,7.0,8.0,47,0.00,,,0.00,TxWx,2013-03-03 16:37:00,
2013-03-03 10:42:00,66.0,45.0,30.22,SSW,202,11.0,12.0,46,0.00,,,0.00,TxWx,2013-03-03 16:42:00,
2013-03-03 10:47:00,66.0,45.0,30.22,South,180,8.0,8.0,46,0.00,,,0.00,TxWx,2013-03-03 16:47:00,
2013-03-03 10:48:00,66.0,45.0,30.22,SSW,202,6.0,8.0,47,0.00,,,0.00,TxWx,2013-03-03 16:48:00,
2013-03-03 10:52:00,66.0,44.0,30.21,SSW,202,10.0,10.0,46,0.00,,,0.00,TxWx,2013-03-03 16:52:00,
2013-03-03 10:53:00,67.0,45.0,30.22,South,180,14.0,14.0,46,0.00,,,0.00,TxWx,2013-03-03 16:53:00,
2013-03-03 10:57:00,66.0,44.0,30.22,SSW,202,10.0,10.0,45,0.00,,,0.00,TxWx,2013-03-03 16:57:00,
2013-03-03 10:58:00,66.0,44.0,30.22,South,180,15.0,15.0,45,0.00,,,0.00,TxWx,2013-03-03 16:58:00,
2013-03-03 11:00:00,66.0,44.0,30.22,SW,225,5.0,6.0,46,0.00,,,0.00,TxWx,2013-03-03 17:00:00,
2013-03-03 11:03:00,66.0,44.0,30.22,South,180,12.0,14.0,46,0.00,,,0.00,TxWx,2013-03-03 17:03:00,
2013-03-03 11:05:00,67.0,45.0,30.22,South,180,13.0,14.0,46,0.00,,,0.00,TxWx,2013-03-03 17:05:00,
2013-03-03 11:08:00,66.0,44.0,30.22,South,180,11.0,12.0,45,0.00,,,0.00,TxWx,2013-03-03 17:08:00,
2013-03-03 11:10:00,66.0,43.0,30.22,SSE,157,8.0,9.0,44,0.00,,,0.00,TxWx,2013-03-03 17:10:00,
2013-03-03 11:11:00,67.0,45.0,30.22,SSE,157,13.0,13.0,45,0.00,,,0.00,TxWx,2013-03-03 17:11:00,
2013-03-03 11:13:00,66.0,43.0,30.21,SSW,202,7.0,8.0,44,0.00,,,0.00,TxWx,2013-03-03 17:13:00,
2013-03-03 11:15:00,66.0,43.0,30.21,SSW,202,14.0,14.0,43,0.00,,,0.00,TxWx,2013-03-03 17:15:00,
2013-03-03 11:17:00,67.0,44.0,30.21,SW,225,11.0,11.0,44,0.00,,,0.00,TxWx,2013-03-03 17:17:00,
2013-03-03 11:19:00,67.0,44.0,30.21,SSW,202,10.0,12.0,43,0.00,,,0.00,TxWx,2013-03-03 17:19:00,
2013-03-03 11:20:00,67.0,44.0,30.21,WSW,247,6.0,6.0,44,0.00,,,0.00,TxWx,2013-03-03 17:20:00,
2013-03-03 11:23:00,67.0,43.0,30.20,SE,135,11.0,13.0,43,0.00,,,0.00,TxWx,2013-03-03 17:23:00,
2013-03-03 11:24:00,67.0,44.0,30.20,SE,135,11.0,12.0,43,0.00,,,0.00,TxWx,2013-03-03 17:24:00,
2013-03-03 11:26:00,67.0,44.0,30.20,SSW,202,9.0,9.0,44,0.00,,,0.00,TxWx,2013-03-03 17:26:00,
2013-03-03 11:28:00,67.0,45.0,30.20,South,180,10.0,10.0,45,0.00,,,0.00,TxWx,2013-03-03 17:28:00,
2013-03-03 11:29:00,67.0,45.0,30.20,SSW,202,10.0,11.0,45,0.00,,,0.00,TxWx,2013-03-03 17:29:00,
2013-03-03 11:31:00,67.0,44.0,30.20,South,180,10.0,14.0,44,0.00,,,0.00,TxWx,2013-03-03 17:31:00,
2013-03-03 11:33:00,67.0,45.0,30.20,SSW,202,8.0,9.0,45,0.00,,,0.00,TxWx,2013-03-03 17:33:00,
2013-03-03 11:35:00,67.0,45.0,30.20,South,180,13.0,13.0,45,0.00,,,0.00,TxWx,2013-03-03 17:35:00,
2013-03-03 11:38:00,67.0,44.0,30.20,South,180,11.0,14.0,44,0.00,,,0.00,TxWx,2013-03-03 17:38:00,
2013-03-03 11:39:00,66.0,43.0,30.20,South,180,9.0,13.0,44,0.00,,,0.00,TxWx,2013-03-03 17:39:00,
2013-03-03 11:41:00,67.0,45.0,30.20,SE,135,7.0,7.0,45,0.00,,,0.00,TxWx,2013-03-03 17:41:00,
2013-03-03 11:43:00,67.0,45.0,30.20,SSW,202,14.0,14.0,45,0.00,,,0.00,TxWx,2013-03-03 17:43:00,
2013-03-03 11:45:00,67.0,45.0,30.20,South,180,15.0,15.0,45,0.00,,,0.00,TxWx,2013-03-03 17:45:00,
2013-03-03 11:46:00,67.0,45.0,30.20,South,180,8.0,8.0,46,0.00,,,0.00,TxWx,2013-03-03 17:46:00,
2013-03-03 11:48:00,67.0,45.0,30.20,SSE,157,16.0,19.0,46,0.00,,,0.00,TxWx,2013-03-03 17:48:00,
2013-03-03 11:50:00,67.0,45.0,30.20,SSE,157,16.0,16.0,46,0.00,,,0.00,TxWx,2013-03-03 17:50:00,
2013-03-03 11:53:00,67.0,45.0,30.19,SSE,157,11.0,11.0,46,0.00,,,0.00,TxWx,2013-03-03 17:53:00,
2013-03-03 11:56:00,67.0,45.0,30.19,SSE,157,16.0,16.0,45,0.00,,,0.00,TxWx,2013-03-03 17:56:00,
2013-03-03 11:57:00,67.0,45.0,30.19,WSW,247,6.0,11.0,46,0.00,,,0.00,TxWx,2013-03-03 17:57:00,
2013-03-03 11:58:00,67.0,45.0,30.19,SW,225,11.0,15.0,46,0.00,,,0.00,TxWx,2013-03-03 17:58:00,
2013-03-03 12:02:00,67.0,45.0,30.19,South,180,15.0,15.0,46,0.00,,,0.00,TxWx,2013-03-03 18:02:00,
2013-03-03 12:03:00,67.0,45.0,30.18,SSW,202,18.0,19.0,46,0.00,,,0.00,TxWx,2013-03-03 18:03:00,
2013-03-03 12:07:00,67.0,46.0,30.18,SSE,157,13.0,13.0,47,0.00,,,0.00,TxWx,2013-03-03 18:07:00,
2013-03-03 12:08:00,67.0,45.0,30.18,SSW,202,12.0,12.0,46,0.00,,,0.00,TxWx,2013-03-03 18:08:00,
2013-03-03 12:09:00,67.0,45.0,30.18,SSE,157,14.0,16.0,46,0.00,,,0.00,TxWx,2013-03-03 18:09:00,
2013-03-03 12:13:00,67.0,45.0,30.18,South,180,15.0,15.0,46,0.00,,,0.00,TxWx,2013-03-03 18:13:00,
2013-03-03 12:14:00,67.0,45.0,30.18,South,180,11.0,11.0,46,0.00,,,0.00,TxWx,2013-03-03 18:14:00,
2013-03-03 12:15:00,67.0,45.0,30.17,South,180,10.0,10.0,46,0.00,,,0.00,TxWx,2013-03-03 18:15:00,
2013-03-03 12:19:00,67.0,45.0,30.17,SE,135,12.0,12.0,46,0.00,,,0.00,TxWx,2013-03-03 18:19:00,
2013-03-03 12:20:00,67.0,46.0,30.17,SSE,157,6.0,6.0,47,0.00,,,0.00,TxWx,2013-03-03 18:20:00,
2013-03-03 12:24:00,67.0,46.0,30.17,SSW,202,13.0,14.0,47,0.00,,,0.00,TxWx,2013-03-03 18:24:00,
2013-03-03 12:25:00,67.0,46.0,30.17,SSE,157,14.0,14.0,47,0.00,,,0.00,TxWx,2013-03-03 18:25:00,
2013-03-03 12:27:00,68.0,47.0,30.17,SSW,202,12.0,13.0,47,0.00,,,0.00,TxWx,2013-03-03 18:27:00,
2013-03-03 12:31:00,68.0,47.0,30.17,SE,135,14.0,14.0,47,0.00,,,0.00,TxWx,2013-03-03 18:31:00,
2013-03-03 12:32:00,68.0,47.0,30.16,SSW,202,6.0,8.0,47,0.00,,,0.00,TxWx,2013-03-03 18:32:00,
2013-03-03 12:36:00,67.0,46.0,30.16,SSW,202,13.0,14.0,47,0.00,,,0.00,TxWx,2013-03-03 18:36:00,
2013-03-03 12:37:00,68.0,47.0,30.16,SSE,157,16.0,16.0,47,0.00,,,0.00,TxWx,2013-03-03 18:37:00,
2013-03-03 12:42:00,67.0,46.0,30.16,South,180,9.0,10.0,47,0.00,,,0.00,TxWx,2013-03-03 18:42:00,
2013-03-03 12:44:00,68.0,47.0,30.16,SSE,157,14.0,14.0,48,0.00,,,0.00,TxWx,2013-03-03 18:44:00,
2013-03-03 12:47:00,67.0,46.0,30.16,SSE,157,12.0,15.0,47,0.00,,,0.00,TxWx,2013-03-03 18:47:00,
2013-03-03 12:48:00,67.0,46.0,30.15,SSW,202,17.0,17.0,47,0.00,,,0.00,TxWx,2013-03-03 18:48:00,
2013-03-03 12:49:00,67.0,46.0,30.15,SE,135,9.0,9.0,47,0.00,,,0.00,TxWx,2013-03-03 18:49:00,
2013-03-03 12:53:00,68.0,47.0,30.15,SSE,157,10.0,12.0,47,0.00,,,0.00,TxWx,2013-03-03 18:53:00,
2013-03-03 12:54:00,69.0,48.0,30.15,SSW,202,5.0,5.0,47,0.00,,,0.00,TxWx,2013-03-03 18:54:00,
2013-03-03 12:55:00,67.0,45.0,30.15,SSE,157,14.0,14.0,46,0.00,,,0.00,TxWx,2013-03-03 18:55:00,
2013-03-03 12:59:00,67.0,46.0,30.15,SSW,202,11.0,12.0,47,0.00,,,0.00,TxWx,2013-03-03 18:59:00,
2013-03-03 13:00:00,68.0,47.0,30.15,SSW,202,9.0,10.0,47,0.00,,,0.00,TxWx,2013-03-03 19:00:00,
2013-03-03 13:01:00,68.0,47.0,30.15,SSE,157,14.0,16.0,48,0.00,,,0.00,TxWx,2013-03-03 19:01:00,
2013-03-03 13:06:00,68.0,47.0,30.14,SSW,202,9.0,9.0,47,0.00,,,0.00,TxWx,2013-03-03 19:06:00,
2013-03-03 13:07:00,68.0,47.0,30.14,South,180,5.0,6.0,47,0.00,,,0.00,TxWx,2013-03-03 19:07:00,
2013-03-03 13:11:00,67.0,45.0,30.14,SSW,202,12.0,13.0,46,0.00,,,0.00,TxWx,2013-03-03 19:11:00,
2013-03-03 13:12:00,67.0,46.0,30.14,SW,225,10.0,13.0,47,0.00,,,0.00,TxWx,2013-03-03 19:12:00,
2013-03-03 13:13:00,68.0,47.0,30.14,South,180,14.0,14.0,47,0.00,,,0.00,TxWx,2013-03-03 19:13:00,
2013-03-03 13:16:00,68.0,47.0,30.14,South,180,6.0,7.0,47,0.00,,,0.00,TxWx,2013-03-03 19:16:00,
2013-03-03 13:18:00,68.0,46.0,30.14,South,180,8.0,8.0,46,0.00,,,0.00,TxWx,2013-03-03 19:18:00,
2013-03-03 13:19:00,68.0,47.0,30.14,SSE,157,12.0,12.0,47,0.00,,,0.00,TxWx,2013-03-03 19:19:00,
2013-03-03 13:22:00,68.0,47.0,30.14,South,180,14.0,14.0,47,0.00,,,0.00,TxWx,2013-03-03 19:22:00,
2013-03-03 13:23:00,68.0,47.0,30.13,SSE,157,11.0,14.0,47,0.00,,,0.00,TxWx,2013-03-03 19:23:00,
2013-03-03 13:24:00,68.0,47.0,30.13,SSW,202,13.0,14.0,47,0.00,,,0.00,TxWx,2013-03-03 19:24:00,
2013-03-03 13:28:00,68.0,47.0,30.13,South,180,6.0,7.0,47,0.00,,,0.00,TxWx,2013-03-03 19:28:00,
2013-03-03 13:30:00,68.0,46.0,30.12,SSE,157,17.0,17.0,46,0.00,,,0.00,TxWx,2013-03-03 19:30:00,
2013-03-03 13:31:00,69.0,47.0,30.12,SSW,202,11.0,12.0,46,0.00,,,0.00,TxWx,2013-03-03 19:31:00,
2013-03-03 13:35:00,68.0,47.0,30.12,South,180,15.0,15.0,47,0.00,,,0.00,TxWx,2013-03-03 19:35:00,
2013-03-03 13:36:00,67.0,46.0,30.12,South,180,16.0,18.0,47,0.00,,,0.00,TxWx,2013-03-03 19:36:00,
2013-03-03 13:38:00,67.0,46.0,30.12,SSE,157,11.0,11.0,47,0.00,,,0.00,TxWx,2013-03-03 19:38:00,
2013-03-03 13:41:00,67.0,46.0,30.12,SE,135,11.0,13.0,48,0.00,,,0.00,TxWx,2013-03-03 19:41:00,
2013-03-03 13:42:00,67.0,46.0,30.12,SSE,157,18.0,18.0,48,0.00,,,0.00,TxWx,2013-03-03 19:42:00,
2013-03-03 13:43:00,68.0,47.0,30.12,SSE,157,11.0,13.0,48,0.00,,,0.00,TxWx,2013-03-03 19:43:00,
2013-03-03 13:46:00,68.0,48.0,30.11,SSW,202,6.0,7.0,48,0.00,,,0.00,TxWx,2013-03-03 19:46:00,
2013-03-03 13:48:00,68.0,48.0,30.11,South,180,12.0,12.0,48,0.00,,,0.00,TxWx,2013-03-03 19:48:00,
2013-03-03 13:49:00,68.0,48.0,30.11,SSE,157,11.0,11.0,48,0.00,,,0.00,TxWx,2013-03-03 19:49:00,
2013-03-03 13:53:00,67.0,46.0,30.11,SSW,202,14.0,15.0,48,0.00,,,0.00,TxWx,2013-03-03 19:53:00,
2013-03-03 13:54:00,68.0,47.0,30.11,SE,135,8.0,8.0,48,0.00,,,0.00,TxWx,2013-03-03 19:54:00,
2013-03-03 13:55:00,67.0,46.0,30.11,SE,135,13.0,15.0,48,0.00,,,0.00,TxWx,2013-03-03 19:55:00,
2013-03-03 13:59:00,68.0,47.0,30.11,South,180,14.0,15.0,48,0.00,,,0.00,TxWx,2013-03-03 19:59:00,
2013-03-03 14:00:00,68.0,47.0,30.11,SSE,157,13.0,13.0,48,0.00,,,0.00,TxWx,2013-03-03 20:00:00,
2013-03-03 14:02:00,68.0,48.0,30.11,SSW,202,7.0,7.0,48,0.00,,,0.00,TxWx,2013-03-03 20:02:00,
2013-03-03 14:05:00,68.0,48.0,30.11,ESE,112,6.0,6.0,49,0.00,,,0.00,TxWx,2013-03-03 20:05:00,
2013-03-03 14:06:00,68.0,48.0,30.11,SSE,157,8.0,8.0,49,0.00,,,0.00,TxWx,2013-03-03 20:06:00,
2013-03-03 14:07:00,68.0,48.0,30.11,SE,135,12.0,14.0,49,0.00,,,0.00,TxWx,2013-03-03 20:07:00,
2013-03-03 14:08:00,68.0,48.0,30.11,SE,135,11.0,11.0,49,0.00,,,0.00,TxWx,2013-03-03 20:08:00,
2013-03-03 14:10:00,68.0,48.0,30.11,SSE,157,14.0,15.0,49,0.00,,,0.00,TxWx,2013-03-03 20:10:00,
2013-03-03 14:13:00,68.0,48.0,30.11,South,180,8.0,8.0,49,0.00,,,0.00,TxWx,2013-03-03 20:13:00,
2013-03-03 14:15:00,69.0,48.0,30.11,SSW,202,11.0,11.0,48,0.00,,,0.00,TxWx,2013-03-03 20:15:00,
2013-03-03 14:16:00,69.0,48.0,30.11,SSE,157,11.0,11.0,48,0.00,,,0.00,TxWx,2013-03-03 20:16:00,
2013-03-03 14:19:00,68.0,48.0,30.11,South,180,13.0,13.0,49,0.00,,,0.00,TxWx,2013-03-03 20:19:00,
2013-03-03 14:21:00,67.0,47.0,30.10,South,180,9.0,10.0,49,0.00,,,0.00,TxWx,2013-03-03 20:21:00,
2013-03-03 14:22:00,68.0,48.0,30.10,SSE,157,8.0,8.0,50,0.00,,,0.00,TxWx,2013-03-03 20:22:00,
2013-03-03 14:24:00,67.0,47.0,30.10,SE,135,15.0,15.0,49,0.00,,,0.00,TxWx,2013-03-03 20:24:00,
2013-03-03 14:27:00,68.0,48.0,30.10,South,180,18.0,18.0,50,0.00,,,0.00,TxWx,2013-03-03 20:27:00,
2013-03-03 14:30:00,67.0,47.0,30.10,SSE,157,14.0,14.0,50,0.00,,,0.00,TxWx,2013-03-03 20:30:00,
2013-03-03 14:32:00,68.0,49.0,30.10,South,180,10.0,10.0,50,0.00,,,0.00,TxWx,2013-03-03 20:32:00,
2013-03-03 14:34:00,68.0,49.0,30.10,SE,135,13.0,16.0,50,0.00,,,0.00,TxWx,2013-03-03 20:34:00,
2013-03-03 14:35:00,68.0,48.0,30.09,SSW,202,10.0,11.0,50,0.00,,,0.00,TxWx,2013-03-03 20:35:00,
2013-03-03 14:37:00,68.0,48.0,30.09,SSE,157,10.0,10.0,50,0.00,,,0.00,TxWx,2013-03-03 20:37:00,
2013-03-03 14:40:00,68.0,49.0,30.09,South,180,9.0,9.0,50,0.00,,,0.00,TxWx,2013-03-03 20:40:00,
2013-03-03 14:42:00,68.0,48.0,30.09,SE,135,14.0,14.0,50,0.00,,,0.00,TxWx,2013-03-03 20:42:00,
2013-03-03 14:45:00,67.0,47.0,30.09,SSE,157,14.0,19.0,49,0.00,,,0.00,TxWx,2013-03-03 20:45:00,
2013-03-03 14:46:00,67.0,47.0,30.09,South,180,20.0,20.0,49,0.00,,,0.00,TxWx,2013-03-03 20:46:00,
2013-03-03 14:48:00,68.0,49.0,30.09,South,180,11.0,11.0,50,0.00,,,0.00,TxWx,2013-03-03 20:48:00,
2013-03-03 14:51:00,67.0,48.0,30.09,South,180,12.0,13.0,50,0.00,,,0.00,TxWx,2013-03-03 20:51:00,
2013-03-03 14:52:00,68.0,49.0,30.09,SSE,157,17.0,18.0,51,0.00,,,0.00,TxWx,2013-03-03 20:52:00,
2013-03-03 14:53:00,67.0,48.0,30.09,SSE,157,18.0,18.0,51,0.00,,,0.00,TxWx,2013-03-03 20:53:00,
2013-03-03 14:54:00,68.0,49.0,30.09,South,180,9.0,10.0,50,0.00,,,0.00,TxWx,2013-03-03 20:54:00,
2013-03-03 14:57:00,67.0,48.0,30.08,SSW,202,8.0,10.0,51,0.00,,,0.00,TxWx,2013-03-03 20:57:00,
2013-03-03 14:58:00,67.0,48.0,30.08,South,180,19.0,19.0,51,0.00,,,0.00,TxWx,2013-03-03 20:58:00,
2013-03-03 15:01:00,67.0,48.0,30.08,SE,135,14.0,16.0,52,0.00,,,0.00,TxWx,2013-03-03 21:01:00,
2013-03-03 15:02:00,67.0,48.0,30.08,SE,135,10.0,14.0,52,0.00,,,0.00,TxWx,2013-03-03 21:02:00,
2013-03-03 15:03:00,68.0,50.0,30.08,SE,135,8.0,11.0,52,0.00,,,0.00,TxWx,2013-03-03 21:03:00,
2013-03-03 15:07:00,67.0,48.0,30.08,South,180,10.0,10.0,51,0.00,,,0.00,TxWx,2013-03-03 21:07:00,
2013-03-03 15:08:00,67.0,48.0,30.08,SSW,202,12.0,12.0,51,0.00,,,0.00,TxWx,2013-03-03 21:08:00,
2013-03-03 15:13:00,68.0,49.0,30.08,South,180,12.0,13.0,50,0.00,,,0.00,TxWx,2013-03-03 21:13:00,
2013-03-03 15:14:00,68.0,48.0,30.08,SSW,202,12.0,13.0,50,0.00,,,0.00,TxWx,2013-03-03 21:14:00,
2013-03-03 15:16:00,68.0,49.0,30.08,South,180,10.0,13.0,51,0.00,,,0.00,TxWx,2013-03-03 21:16:00,
2013-03-03 15:19:00,68.0,48.0,30.08,SSW,202,10.0,10.0,50,0.00,,,0.00,TxWx,2013-03-03 21:19:00,
2013-03-03 15:22:00,69.0,50.0,30.08,SE,135,11.0,12.0,50,0.00,,,0.00,TxWx,2013-03-03 21:22:00,
2013-03-03 15:25:00,68.0,48.0,30.07,SSE,157,13.0,13.0,50,0.00,,,0.00,TxWx,2013-03-03 21:25:00,
2013-03-03 15:27:00,68.0,48.0,30.07,SSW,202,7.0,10.0,50,0.00,,,0.00,TxWx,2013-03-03 21:27:00,
2013-03-03 15:28:00,68.0,48.0,30.07,SSW,202,7.0,8.0,50,0.00,,,0.00,TxWx,2013-03-03 21:28:00,
2013-03-03 15:31:00,68.0,48.0,30.07,SSE,157,15.0,15.0,49,0.00,,,0.00,TxWx,2013-03-03 21:31:00,
2013-03-03 15:33:00,68.0,48.0,30.07,SSW,202,14.0,14.0,48,0.00,,,0.00,TxWx,2013-03-03 21:33:00,
2013-03-03 15:34:00,68.0,48.0,30.07,SSW,202,9.0,9.0,49,0.00,,,0.00,TxWx,2013-03-03 21:34:00,
2013-03-03 15:35:00,68.0,48.0,30.07,WSW,247,10.0,10.0,49,0.00,,,0.00,TxWx,2013-03-03 21:35:00,
2013-03-03 15:36:00,68.0,48.0,30.07,SE,135,18.0,18.0,49,0.00,,,0.00,TxWx,2013-03-03 21:36:00,
2013-03-03 15:39:00,68.0,48.0,30.07,South,180,10.0,10.0,49,0.00,,,0.00,TxWx,2013-03-03 21:39:00,
2013-03-03 15:40:00,68.0,48.0,30.07,SSE,157,9.0,10.0,50,0.00,,,0.00,TxWx,2013-03-03 21:40:00,
2013-03-03 15:42:00,68.0,48.0,30.07,SSW,202,12.0,15.0,49,0.00,,,0.00,TxWx,2013-03-03 21:42:00,
2013-03-03 15:45:00,69.0,49.0,30.07,SSW,202,11.0,11.0,50,0.00,,,0.00,TxWx,2013-03-03 21:45:00,
2013-03-03 15:47:00,68.0,48.0,30.07,SE,135,12.0,12.0,50,0.00,,,0.00,TxWx,2013-03-03 21:47:00,
2013-03-03 15:48:00,68.0,49.0,30.06,ESE,112,13.0,14.0,50,0.00,,,0.00,TxWx,2013-03-03 21:48:00,
2013-03-03 15:50:00,68.0,49.0,30.06,SSE,157,10.0,14.0,50,0.00,,,0.00,TxWx,2013-03-03 21:50:00,
2013-03-03 15:53:00,68.0,49.0,30.06,SSE,157,14.0,17.0,51,0.00,,,0.00,TxWx,2013-03-03 21:53:00,
2013-03-03 15:56:00,68.0,49.0,30.06,South,180,14.0,14.0,50,0.00,,,0.00,TxWx,2013-03-03 21:56:00,
2013-03-03 15:59:00,68.0,49.0,30.06,South,180,13.0,14.0,51,0.00,,,0.00,TxWx,2013-03-03 21:59:00,
2013-03-03 16:03:00,67.0,48.0,30.06,SSE,157,10.0,13.0,51,0.00,,,0.00,TxWx,2013-03-03 22:03:00,
2013-03-03 16:04:00,67.0,48.0,30.06,SSE,157,18.0,18.0,51,0.00,,,0.00,TxWx,2013-03-03 22:04:00,
2013-03-03 16:05:00,67.0,48.0,30.06,SSE,157,13.0,15.0,51,0.00,,,0.00,TxWx,2013-03-03 22:05:00,
2013-03-03 16:07:00,68.0,49.0,30.06,SSE,157,15.0,15.0,51,0.00,,,0.00,TxWx,2013-03-03 22:07:00,
2013-03-03 16:08:00,67.0,48.0,30.06,SE,135,16.0,16.0,51,0.00,,,0.00,TxWx,2013-03-03 22:08:00,
2013-03-03 16:10:00,67.0,48.0,30.06,SSE,157,16.0,16.0,52,0.00,,,0.00,TxWx,2013-03-03 22:10:00,
2013-03-03 16:11:00,67.0,49.0,30.06,SSW,202,18.0,19.0,52,0.00,,,0.00,TxWx,2013-03-03 22:11:00,
2013-03-03 16:13:00,67.0,49.0,30.06,South,180,21.0,21.0,53,0.00,,,0.00,TxWx,2013-03-03 22:13:00,
2013-03-03 16:14:00,67.0,49.0,30.06,SSE,157,13.0,14.0,52,0.00,,,0.00,TxWx,2013-03-03 22:14:00,
2013-03-03 16:15:00,67.0,49.0,30.06,SSE,157,19.0,19.0,52,0.00,,,0.00,TxWx,2013-03-03 22:15:00,
2013-03-03 16:16:00,67.0,49.0,30.06,South,180,14.0,15.0,53,0.00,,,0.00,TxWx,2013-03-03 22:16:00,
2013-03-03 16:20:00,67.0,49.0,30.06,SE,135,10.0,10.0,52,0.00,,,0.00,TxWx,2013-03-03 22:20:00,
2013-03-03 16:22:00,67.0,49.0,30.06,SSW,202,17.0,19.0,53,0.00,,,0.00,TxWx,2013-03-03 22:22:00,
2013-03-03 16:26:00,68.0,50.0,30.05,SSW,202,13.0,14.0,53,0.00,,,0.00,TxWx,2013-03-03 22:26:00,
2013-03-03 16:27:00,68.0,50.0,30.05,South,180,15.0,21.0,53,0.00,,,0.00,TxWx,2013-03-03 22:27:00,
2013-03-03 16:28:00,67.0,49.0,30.05,SSE,157,10.0,11.0,53,0.00,,,0.00,TxWx,2013-03-03 22:28:00,
2013-03-03 16:31:00,67.0,50.0,30.05,SSE,157,13.0,13.0,54,0.00,,,0.00,TxWx,2013-03-03 22:31:00,
2013-03-03 16:32:00,67.0,50.0,30.05,SE,135,11.0,11.0,54,0.00,,,0.00,TxWx,2013-03-03 22:32:00,
2013-03-03 16:33:00,67.0,49.0,30.05,SSE,157,15.0,16.0,53,0.00,,,0.00,TxWx,2013-03-03 22:33:00,
2013-03-03 16:36:00,67.0,50.0,30.05,WSW,247,10.0,12.0,54,0.00,,,0.00,TxWx,2013-03-03 22:36:00,
2013-03-03 16:37:00,67.0,50.0,30.05,SE,135,9.0,10.0,54,0.00,,,0.00,TxWx,2013-03-03 22:37:00,
2013-03-03 16:38:00,67.0,50.0,30.05,SSW,202,15.0,15.0,54,0.00,,,0.00,TxWx,2013-03-03 22:38:00,
2013-03-03 16:41:00,67.0,50.0,30.05,SSE,157,18.0,23.0,54,0.00,,,0.00,TxWx,2013-03-03 22:41:00,
2013-03-03 16:42:00,66.0,49.0,30.05,SSW,202,14.0,14.0,54,0.00,,,0.00,TxWx,2013-03-03 22:42:00,
2013-03-03 16:44:00,67.0,50.0,30.05,SSE,157,14.0,14.0,55,0.00,,,0.00,TxWx,2013-03-03 22:44:00,
2013-03-03 16:46:00,67.0,50.0,30.04,South,180,16.0,16.0,54,0.00,,,0.00,TxWx,2013-03-03 22:46:00,
2013-03-03 16:47:00,67.0,50.0,30.05,SSW,202,13.0,13.0,55,0.00,,,0.00,TxWx,2013-03-03 22:47:00,
2013-03-03 16:49:00,67.0,51.0,30.05,SSW,202,11.0,11.0,56,0.00,,,0.00,TxWx,2013-03-03 22:49:00,
2013-03-03 16:51:00,67.0,50.0,30.04,SSE,157,13.0,13.0,54,0.00,,,0.00,TxWx,2013-03-03 22:51:00,
2013-03-03 16:52:00,67.0,50.0,30.05,South,180,18.0,19.0,54,0.00,,,0.00,TxWx,2013-03-03 22:52:00,
2013-03-03 16:55:00,67.0,50.0,30.04,SSW,202,11.0,14.0,54,0.00,,,0.00,TxWx,2013-03-03 22:55:00,
2013-03-03 16:57:00,66.0,49.0,30.04,South,180,18.0,21.0,54,0.00,,,0.00,TxWx,2013-03-03 22:57:00,
2013-03-03 16:58:00,66.0,49.0,30.04,SSE,157,16.0,16.0,54,0.00,,,0.00,TxWx,2013-03-03 22:58:00,
2013-03-03 16:59:00,67.0,50.0,30.04,SSE,157,13.0,14.0,54,0.00,,,0.00,TxWx,2013-03-03 22:59:00,
2013-03-03 17:01:00,66.0,49.0,30.04,SSW,202,15.0,16.0,54,0.00,,,0.00,TxWx,2013-03-03 23:01:00,
2013-03-03 17:03:00,67.0,50.0,30.04,SSW,202,7.0,7.0,54,0.00,,,0.00,TxWx,2013-03-03 23:03:00,
2013-03-03 17:04:00,66.0,49.0,30.04,SSE,157,18.0,18.0,54,0.00,,,0.00,TxWx,2013-03-03 23:04:00,
2013-03-03 17:08:00,67.0,50.0,30.04,SSE,157,7.0,8.0,55,0.00,,,0.00,TxWx,2013-03-03 23:08:00,
2013-03-03 17:09:00,67.0,50.0,30.04,SSE,157,7.0,8.0,55,0.00,,,0.00,TxWx,2013-03-03 23:09:00,
2013-03-03 17:11:00,67.0,50.0,30.04,SSE,157,18.0,18.0,54,0.00,,,0.00,TxWx,2013-03-03 23:11:00,
2013-03-03 17:13:00,66.0,49.0,30.04,SSE,157,18.0,19.0,55,0.00,,,0.00,TxWx,2013-03-03 23:13:00,
2013-03-03 17:14:00,66.0,49.0,30.04,SSE,157,18.0,18.0,55,0.00,,,0.00,TxWx,2013-03-03 23:14:00,
2013-03-03 17:16:00,66.0,50.0,30.04,South,180,16.0,16.0,56,0.00,,,0.00,TxWx,2013-03-03 23:16:00,
2013-03-03 17:19:00,66.0,50.0,30.04,SSE,157,17.0,17.0,56,0.00,,,0.00,TxWx,2013-03-03 23:19:00,
2013-03-03 17:20:00,66.0,50.0,30.04,SSE,157,18.0,21.0,56,0.00,,,0.00,TxWx,2013-03-03 23:20:00,
2013-03-03 17:21:00,66.0,50.0,30.04,SW,225,9.0,13.0,57,0.00,,,0.00,TxWx,2013-03-03 23:21:00,
2013-03-03 17:24:00,66.0,50.0,30.04,SSW,202,10.0,11.0,57,0.00,,,0.00,TxWx,2013-03-03 23:24:00,
2013-03-03 17:25:00,66.0,50.0,30.04,SSE,157,22.0,23.0,57,0.00,,,0.00,TxWx,2013-03-03 23:25:00,
2013-03-03 17:26:00,66.0,50.0,30.04,South,180,17.0,21.0,57,0.00,,,0.00,TxWx,2013-03-03 23:26:00,
2013-03-03 17:31:00,66.0,51.0,30.04,SSE,157,17.0,21.0,58,0.00,,,0.00,TxWx,2013-03-03 23:31:00,
2013-03-03 17:32:00,65.0,50.0,30.04,SE,135,11.0,12.0,59,0.00,,,0.00,TxWx,2013-03-03 23:32:00,
2013-03-03 17:35:00,65.0,50.0,30.04,SSE,157,11.0,15.0,58,0.00,,,0.00,TxWx,2013-03-03 23:35:00,
2013-03-03 17:36:00,65.0,50.0,30.04,SSW,202,18.0,19.0,58,0.00,,,0.00,TxWx,2013-03-03 23:36:00,
2013-03-03 17:38:00,65.0,50.0,30.04,South,180,18.0,19.0,59,0.00,,,0.00,TxWx,2013-03-03 23:38:00,
2013-03-03 17:40:00,66.0,51.0,30.04,SSE,157,11.0,11.0,59,0.00,,,0.00,TxWx,2013-03-03 23:40:00,
2013-03-03 17:42:00,65.0,50.0,30.04,South,180,13.0,13.0,59,0.00,,,0.00,TxWx,2013-03-03 23:42:00,
2013-03-03 17:43:00,65.0,50.0,30.04,South,180,14.0,17.0,59,0.00,,,0.00,TxWx,2013-03-03 23:43:00,
2013-03-03 17:47:00,65.0,51.0,30.04,SSW,202,13.0,15.0,60,0.00,,,0.00,TxWx,2013-03-03 23:47:00,
2013-03-03 17:48:00,65.0,51.0,30.04,SSW,202,9.0,10.0,60,0.00,,,0.00,TxWx,2013-03-03 23:48:00,
2013-03-03 17:49:00,65.0,51.0,30.04,South,180,9.0,10.0,60,0.00,,,0.00,TxWx,2013-03-03 23:49:00,
2013-03-03 17:50:00,65.0,51.0,30.04,South,180,19.0,19.0,60,0.00,,,0.00,TxWx,2013-03-03 23:50:00,
2013-03-03 17:53:00,65.0,51.0,30.04,SSE,157,14.0,14.0,60,0.00,,,0.00,TxWx,2013-03-03 23:53:00,
2013-03-03 17:54:00,65.0,51.0,30.04,SSE,157,18.0,24.0,60,0.00,,,0.00,TxWx,2013-03-03 23:54:00,
2013-03-03 17:56:00,65.0,51.0,30.04,SSE,157,14.0,14.0,60,0.00,,,0.00,TxWx,2013-03-03 23:56:00,
2013-03-03 17:59:00,65.0,51.0,30.03,South,180,19.0,19.0,61,0.00,,,0.00,TxWx,2013-03-03 23:59:00,
2013-03-03 18:00:00,65.0,51.0,30.04,South,180,18.0,20.0,61,0.00,,,0.00,TxWx,2013-03-04 00:00:00,
2013-03-03 18:01:00,65.0,51.0,30.03,South,180,16.0,16.0,61,0.00,,,0.00,TxWx,2013-03-04 00:01:00,
2013-03-03 18:02:00,65.0,51.0,30.03,SSW,202,13.0,13.0,61,0.00,,,0.00,TxWx,2013-03-04 00:02:00,
2013-03-03 18:05:00,65.0,51.0,30.04,South,180,16.0,16.0,61,0.00,,,0.00,TxWx,2013-03-04 00:05:00,
2013-03-03 18:06:00,65.0,51.0,30.03,SSE,157,15.0,18.0,61,0.00,,,0.00,TxWx,2013-03-04 00:06:00,
2013-03-03 18:08:00,65.0,51.0,30.03,SSE,157,9.0,13.0,61,0.00,,,0.00,TxWx,2013-03-04 00:08:00,
2013-03-03 18:11:00,65.0,51.0,30.04,SSE,157,8.0,11.0,62,0.00,,,0.00,TxWx,2013-03-04 00:11:00,
2013-03-03 18:13:00,65.0,51.0,30.04,SSE,157,9.0,9.0,62,0.00,,,0.00,TxWx,2013-03-04 00:13:00,
2013-03-03 18:17:00,64.0,51.0,30.04,South,180,19.0,21.0,63,0.00,,,0.00,TxWx,2013-03-04 00:17:00,
2013-03-03 18:18:00,64.0,51.0,30.04,South,180,16.0,18.0,63,0.00,,,0.00,TxWx,2013-03-04 00:18:00,
2013-03-03 18:19:00,64.0,51.0,30.04,SE,135,16.0,16.0,63,0.00,,,0.00,TxWx,2013-03-04 00:19:00,
2013-03-03 18:23:00,64.0,51.0,30.03,South,180,13.0,14.0,64,0.00,,,0.00,TxWx,2013-03-04 00:23:00,
2013-03-03 18:24:00,64.0,51.0,30.03,SSW,202,19.0,19.0,64,0.00,,,0.00,TxWx,2013-03-04 00:24:00,
2013-03-03 18:29:00,64.0,52.0,30.03,SSW,202,13.0,13.0,65,0.00,,,0.00,TxWx,2013-03-04 00:29:00,
2013-03-03 18:30:00,64.0,52.0,30.03,SSE,157,19.0,21.0,65,0.00,,,0.00,TxWx,2013-03-04 00:30:00,
2013-03-03 18:32:00,64.0,52.0,30.03,South,180,14.0,14.0,66,0.00,,,0.00,TxWx,2013-03-04 00:32:00,
2013-03-03 18:35:00,64.0,52.0,30.03,South,180,12.0,13.0,66,0.00,,,0.00,TxWx,2013-03-04 00:35:00,
2013-03-03 18:37:00,64.0,53.0,30.03,SSW,202,16.0,16.0,67,0.00,,,0.00,TxWx,2013-03-04 00:37:00,
2013-03-03 18:38:00,64.0,53.0,30.03,South,180,18.0,19.0,67,0.00,,,0.00,TxWx,2013-03-04 00:38:00,
2013-03-03 18:41:00,64.0,53.0,30.03,South,180,12.0,12.0,67,0.00,,,0.00,TxWx,2013-03-04 00:41:00,
2013-03-03 18:43:00,64.0,53.0,30.03,SSW,202,14.0,18.0,67,0.00,,,0.00,TxWx,2013-03-04 00:43:00,
2013-03-03 18:45:00,64.0,53.0,30.03,SW,225,12.0,12.0,67,0.00,,,0.00,TxWx,2013-03-04 00:45:00,
2013-03-03 18:46:00,64.0,53.0,30.03,SSE,157,11.0,12.0,68,0.00,,,0.00,TxWx,2013-03-04 00:46:00,
2013-03-03 18:47:00,64.0,53.0,30.03,SSW,202,15.0,18.0,68,0.00,,,0.00,TxWx,2013-03-04 00:47:00,
2013-03-03 18:49:00,64.0,53.0,30.03,SSE,157,18.0,18.0,68,0.00,,,0.00,TxWx,2013-03-04 00:49:00,
2013-03-03 18:50:00,64.0,53.0,30.03,SE,135,8.0,9.0,68,0.00,,,0.00,TxWx,2013-03-04 00:50:00,
2013-03-03 18:52:00,64.0,53.0,30.03,South,180,12.0,12.0,68,0.00,,,0.00,TxWx,2013-03-04 00:52:00,
2013-03-03 18:56:00,63.0,52.0,30.03,South,180,13.0,14.0,69,0.00,,,0.00,TxWx,2013-03-04 00:56:00,
2013-03-03 18:57:00,63.0,52.0,30.03,South,180,6.0,8.0,69,0.00,,,0.00,TxWx,2013-03-04 00:57:00,
2013-03-03 18:59:00,63.0,53.0,30.03,South,180,14.0,15.0,69,0.00,,,0.00,TxWx,2013-03-04 00:59:00,
2013-03-03 19:01:00,63.0,53.0,30.03,South,180,11.0,13.0,69,0.00,,,0.00,TxWx,2013-03-04 01:01:00,
2013-03-03 19:03:00,63.0,53.0,30.03,South,180,7.0,8.0,69,0.00,,,0.00,TxWx,2013-03-04 01:03:00,
2013-03-03 19:04:00,63.0,53.0,30.03,SSW,202,10.0,11.0,70,0.00,,,0.00,TxWx,2013-03-04 01:04:00,
2013-03-03 19:05:00,63.0,53.0,30.03,SW,225,14.0,14.0,70,0.00,,,0.00,TxWx,2013-03-04 01:05:00,
2013-03-03 19:08:00,63.0,53.0,30.03,South,180,11.0,12.0,70,0.00,,,0.00,TxWx,2013-03-04 01:08:00,
2013-03-03 19:09:00,63.0,53.0,30.03,South,180,13.0,13.0,70,0.00,,,0.00,TxWx,2013-03-04 01:09:00,
2013-03-03 19:10:00,63.0,53.0,30.03,SSW,202,8.0,10.0,70,0.00,,,0.00,TxWx,2013-03-04 01:10:00,
2013-03-03 19:14:00,63.0,53.0,30.04,SW,225,16.0,17.0,70,0.00,,,0.00,TxWx,2013-03-04 01:14:00,
2013-03-03 19:15:00,63.0,53.0,30.03,SSW,202,14.0,14.0,70,0.00,,,0.00,TxWx,2013-03-04 01:15:00,
2013-03-03 19:19:00,63.0,53.0,30.04,South,180,12.0,12.0,70,0.00,,,0.00,TxWx,2013-03-04 01:19:00,
2013-03-03 19:20:00,63.0,53.0,30.03,SSW,202,14.0,16.0,70,0.00,,,0.00,TxWx,2013-03-04 01:20:00,
2013-03-03 19:22:00,63.0,53.0,30.03,SSW,202,15.0,15.0,70,0.00,,,0.00,TxWx,2013-03-04 01:22:00,
2013-03-03 19:24:00,63.0,53.0,30.03,South,180,11.0,11.0,70,0.00,,,0.00,TxWx,2013-03-04 01:24:00,
2013-03-03 19:25:00,63.0,53.0,30.03,SSW,202,14.0,14.0,70,0.00,,,0.00,TxWx,2013-03-04 01:25:00,
2013-03-03 19:28:00,63.0,53.0,30.03,South,180,11.0,11.0,70,0.00,,,0.00,TxWx,2013-03-04 01:28:00,
2013-03-03 19:30:00,63.0,53.0,30.03,South,180,8.0,9.0,70,0.00,,,0.00,TxWx,2013-03-04 01:30:00,
2013-03-03 19:31:00,63.0,53.0,30.04,SSW,202,19.0,22.0,70,0.00,,,0.00,TxWx,2013-03-04 01:31:00,
2013-03-03 19:34:00,63.0,53.0,30.04,South,180,20.0,20.0,70,0.00,,,0.00,TxWx,2013-03-04 01:34:00,
2013-03-03 19:35:00,63.0,53.0,30.04,SSE,157,8.0,8.0,70,0.00,,,0.00,TxWx,2013-03-04 01:35:00,
2013-03-03 19:37:00,63.0,53.0,30.03,SSW,202,13.0,14.0,70,0.00,,,0.00,TxWx,2013-03-04 01:37:00,
2013-03-03 19:40:00,63.0,53.0,30.03,SSW,202,16.0,16.0,70,0.00,,,0.00,TxWx,2013-03-04 01:40:00,
2013-03-03 19:41:00,63.0,53.0,30.04,South,180,8.0,10.0,70,0.00,,,0.00,TxWx,2013-03-04 01:41:00,
2013-03-03 19:43:00,63.0,53.0,30.04,SSW,202,19.0,19.0,70,0.00,,,0.00,TxWx,2013-03-04 01:43:00,
2013-03-03 19:46:00,63.0,53.0,30.03,South,180,12.0,12.0,70,0.00,,,0.00,TxWx,2013-03-04 01:46:00,
2013-03-03 19:47:00,63.0,53.0,30.04,SSW,202,16.0,16.0,70,0.00,,,0.00,TxWx,2013-03-04 01:47:00,
2013-03-03 19:48:00,63.0,53.0,30.04,SSE,157,20.0,20.0,70,0.00,,,0.00,TxWx,2013-03-04 01:48:00,
2013-03-03 19:49:00,63.0,53.0,30.04,SSW,202,13.0,14.0,70,0.00,,,0.00,TxWx,2013-03-04 01:49:00,
2013-03-03 19:52:00,63.0,53.0,30.04,South,180,14.0,14.0,70,0.00,,,0.00,TxWx,2013-03-04 01:52:00,
2013-03-03 19:53:00,63.0,53.0,30.04,South,180,11.0,11.0,70,0.00,,,0.00,TxWx,2013-03-04 01:53:00,
2013-03-03 19:57:00,63.0,53.0,30.04,South,180,12.0,13.0,70,0.00,,,0.00,TxWx,2013-03-04 01:57:00,
2013-03-03 19:59:00,63.0,53.0,30.04,SSW,202,12.0,12.0,71,0.00,,,0.00,TxWx,2013-03-04 01:59:00,
2013-03-03 20:04:00,63.0,53.0,30.03,SSW,202,13.0,13.0,71,0.00,,,0.00,TxWx,2013-03-04 02:04:00,
2013-03-03 20:05:00,63.0,53.0,30.04,SSE,157,20.0,20.0,71,0.00,,,0.00,TxWx,2013-03-04 02:05:00,
2013-03-03 20:09:00,63.0,53.0,30.03,South,180,10.0,10.0,71,0.00,,,0.00,TxWx,2013-03-04 02:09:00,
2013-03-03 20:10:00,63.0,53.0,30.03,SSW,202,11.0,11.0,71,0.00,,,0.00,TxWx,2013-03-04 02:10:00,
2013-03-03 20:11:00,63.0,53.0,30.03,South,180,14.0,18.0,71,0.00,,,0.00,TxWx,2013-03-04 02:11:00,
2013-03-03 20:12:00,63.0,53.0,30.03,South,180,8.0,10.0,71,0.00,,,0.00,TxWx,2013-03-04 02:12:00,
2013-03-03 20:15:00,63.0,53.0,30.04,SE,135,18.0,18.0,71,0.00,,,0.00,TxWx,2013-03-04 02:15:00,
2013-03-03 20:16:00,63.0,53.0,30.04,South,180,15.0,17.0,71,0.00,,,0.00,TxWx,2013-03-04 02:16:00,
2013-03-03 20:17:00,63.0,53.0,30.03,SSE,157,18.0,18.0,71,0.00,,,0.00,TxWx,2013-03-04 02:17:00,
2013-03-03 20:19:00,63.0,53.0,30.04,SSW,202,10.0,10.0,71,0.00,,,0.00,TxWx,2013-03-04 02:19:00,
2013-03-03 20:21:00,63.0,53.0,30.04,South,180,10.0,11.0,71,0.00,,,0.00,TxWx,2013-03-04 02:21:00,
2013-03-03 20:22:00,63.0,53.0,30.04,SSE,157,13.0,13.0,71,0.00,,,0.00,TxWx,2013-03-04 02:22:00,
2013-03-03 20:24:00,63.0,53.0,30.03,SW,225,14.0,18.0,71,0.00,,,0.00,TxWx,2013-03-04 02:24:00,
2013-03-03 20:25:00,63.0,53.0,30.04,SSW,202,19.0,19.0,71,0.00,,,0.00,TxWx,2013-03-04 02:25:00,
2013-03-03 20:26:00,63.0,53.0,30.03,SSE,157,9.0,10.0,71,0.00,,,0.00,TxWx,2013-03-04 02:26:00,
2013-03-03 20:27:00,63.0,53.0,30.03,South,180,13.0,23.0,71,0.00,,,0.00,TxWx,2013-03-04 02:27:00,
2013-03-03 20:31:00,63.0,54.0,30.03,South,180,9.0,9.0,72,0.00,,,0.00,TxWx,2013-03-04 02:31:00,
2013-03-03 20:32:00,63.0,54.0,30.04,SSW,202,8.0,9.0,72,0.00,,,0.00,TxWx,2013-03-04 02:32:00,
2013-03-03 20:34:00,63.0,54.0,30.04,SSW,202,19.0,21.0,72,0.00,,,0.00,TxWx,2013-03-04 02:34:00,
2013-03-03 20:37:00,63.0,54.0,30.04,SSE,157,11.0,12.0,72,0.00,,,0.00,TxWx,2013-03-04 02:37:00,
2013-03-03 20:38:00,63.0,54.0,30.04,South,180,13.0,14.0,72,0.00,,,0.00,TxWx,2013-03-04 02:38:00,
2013-03-03 20:42:00,63.0,54.0,30.03,South,180,16.0,16.0,72,0.00,,,0.00,TxWx,2013-03-04 02:42:00,
2013-03-03 20:43:00,63.0,54.0,30.03,South,180,7.0,7.0,72,0.00,,,0.00,TxWx,2013-03-04 02:43:00,
2013-03-03 20:46:00,63.0,54.0,30.04,SSW,202,14.0,16.0,72,0.00,,,0.00,TxWx,2013-03-04 02:46:00,
2013-03-03 20:47:00,63.0,54.0,30.03,South,180,21.0,21.0,72,0.00,,,0.00,TxWx,2013-03-04 02:47:00,
2013-03-03 20:48:00,63.0,54.0,30.04,SSW,202,8.0,9.0,72,0.00,,,0.00,TxWx,2013-03-04 02:48:00,
2013-03-03 20:49:00,63.0,54.0,30.04,SSW,202,11.0,11.0,72,0.00,,,0.00,TxWx,2013-03-04 02:49:00,
2013-03-03 20:52:00,63.0,54.0,30.04,SSW,202,5.0,9.0,73,0.00,,,0.00,TxWx,2013-03-04 02:52:00,
2013-03-03 20:53:00,63.0,54.0,30.04,SSW,202,14.0,14.0,73,0.00,,,0.00,TxWx,2013-03-04 02:53:00,
2013-03-03 20:54:00,63.0,54.0,30.04,South,180,11.0,13.0,73,0.00,,,0.00,TxWx,2013-03-04 02:54:00,
2013-03-03 20:55:00,63.0,54.0,30.03,SSW,202,15.0,15.0,73,0.00,,,0.00,TxWx,2013-03-04 02:55:00,
2013-03-03 20:57:00,63.0,54.0,30.04,SSW,202,11.0,12.0,73,0.00,,,0.00,TxWx,2013-03-04 02:57:00,
2013-03-03 20:58:00,63.0,54.0,30.04,SSW,202,16.0,16.0,73,0.00,,,0.00,TxWx,2013-03-04 02:58:00,
2013-03-03 21:00:00,63.0,54.0,30.04,SSE,157,13.0,13.0,73,0.00,,,0.00,TxWx,2013-03-04 03:00:00,
2013-03-03 21:03:00,63.0,54.0,30.04,SSW,202,11.0,14.0,73,0.00,,,0.00,TxWx,2013-03-04 03:03:00,
2013-03-03 21:04:00,63.0,54.0,30.04,SSE,157,14.0,18.0,73,0.00,,,0.00,TxWx,2013-03-04 03:04:00,
2013-03-03 21:06:00,63.0,54.0,30.04,SW,225,17.0,17.0,73,0.00,,,0.00,TxWx,2013-03-04 03:06:00,
2013-03-03 21:08:00,63.0,54.0,30.03,South,180,8.0,8.0,73,0.00,,,0.00,TxWx,2013-03-04 03:08:00,
2013-03-03 21:09:00,63.0,54.0,30.03,South,180,6.0,7.0,73,0.00,,,0.00,TxWx,2013-03-04 03:09:00,
2013-03-03 21:12:00,63.0,54.0,30.03,SSW,202,8.0,9.0,73,0.00,,,0.00,TxWx,2013-03-04 03:12:00,
2013-03-03 21:14:00,63.0,54.0,30.03,SSW,202,9.0,10.0,73,0.00,,,0.00,TxWx,2013-03-04 03:14:00,
2013-03-03 21:18:00,63.0,54.0,30.03,SSW,202,10.0,10.0,73,0.00,,,0.00,TxWx,2013-03-04 03:18:00,
2013-03-03 21:19:00,63.0,54.0,30.03,SSW,202,15.0,16.0,73,0.00,,,0.00,TxWx,2013-03-04 03:19:00,
2013-03-03 21:20:00,63.0,54.0,30.03,SSW,202,15.0,15.0,73,0.00,,,0.00,TxWx,2013-03-04 03:20:00,
2013-03-03 21:23:00,63.0,54.0,30.03,SSW,202,12.0,14.0,73,0.00,,,0.00,TxWx,2013-03-04 03:23:00,
2013-03-03 21:25:00,63.0,54.0,30.03,South,180,11.0,11.0,73,0.00,,,0.00,TxWx,2013-03-04 03:25:00,
2013-03-03 21:26:00,63.0,54.0,30.03,SSE,157,16.0,16.0,73,0.00,,,0.00,TxWx,2013-03-04 03:26:00,
2013-03-03 21:30:00,63.0,54.0,30.03,SSW,202,9.0,11.0,73,0.00,,,0.00,TxWx,2013-03-04 03:30:00,
2013-03-03 21:31:00,63.0,54.0,30.03,SSE,157,10.0,10.0,73,0.00,,,0.00,TxWx,2013-03-04 03:31:00,
2013-03-03 21:33:00,63.0,54.0,30.03,South,180,5.0,6.0,74,0.00,,,0.00,TxWx,2013-03-04 03:33:00,
2013-03-03 21:35:00,63.0,54.0,30.03,South,180,18.0,18.0,74,0.00,,,0.00,TxWx,2013-03-04 03:35:00,
2013-03-03 21:36:00,63.0,54.0,30.03,South,180,13.0,17.0,73,0.00,,,0.00,TxWx,2013-03-04 03:36:00,
2013-03-03 21:41:00,63.0,54.0,30.03,SSE,157,10.0,10.0,73,0.00,,,0.00,TxWx,2013-03-04 03:41:00,
2013-03-03 21:42:00,63.0,54.0,30.03,South,180,22.0,23.0,73,0.00,,,0.00,TxWx,2013-03-04 03:42:00,
2013-03-03 21:46:00,63.0,54.0,30.03,South,180,14.0,18.0,73,0.00,,,0.00,TxWx,2013-03-04 03:46:00,
2013-03-03 21:47:00,63.0,54.0,30.03,SSW,202,10.0,11.0,73,0.00,,,0.00,TxWx,2013-03-04 03:47:00,
2013-03-03 21:50:00,63.0,54.0,30.03,SW,225,17.0,18.0,73,0.00,,,0.00,TxWx,2013-03-04 03:50:00,
2013-03-03 21:52:00,63.0,54.0,30.03,SSW,202,16.0,18.0,73,0.00,,,0.00,TxWx,2013-03-04 03:52:00,
2013-03-03 21:53:00,63.0,54.0,30.02,SSW,202,10.0,10.0,73,0.00,,,0.00,TxWx,2013-03-04 03:53:00,
2013-03-03 21:57:00,63.0,54.0,30.02,SSW,202,10.0,11.0,73,0.00,,,0.00,TxWx,2013-03-04 03:57:00,
2013-03-03 21:59:00,63.0,55.0,30.01,SSW,202,10.0,11.0,75,0.00,,,0.00,TxWx,2013-03-04 03:59:00,
2013-03-03 22:00:00,63.0,54.0,30.02,South,180,14.0,16.0,73,0.00,,,0.00,TxWx,2013-03-04 04:00:00,
2013-03-03 22:01:00,63.0,55.0,30.01,SSW,202,11.0,12.0,75,0.00,,,0.00,TxWx,2013-03-04 04:01:00,
2013-03-03 22:02:00,63.0,54.0,30.03,SSW,202,11.0,11.0,73,0.00,,,0.00,TxWx,2013-03-04 04:02:00,
2013-03-03 22:03:00,63.0,54.0,30.03,SSW,202,9.0,10.0,73,0.00,,,0.00,TxWx,2013-03-04 04:03:00,
2013-03-03 22:04:00,63.0,55.0,30.00,South,180,16.0,16.0,75,0.00,,,0.00,TxWx,2013-03-04 04:04:00,
2013-03-03 22:05:00,63.0,55.0,30.00,SSW,202,10.0,10.0,75,0.00,,,0.00,TxWx,2013-03-04 04:05:00,
2013-03-03 22:06:00,63.0,54.0,30.02,SSW,202,13.0,16.0,74,0.00,,,0.00,TxWx,2013-03-04 04:06:00,
2013-03-03 22:07:00,63.0,54.0,30.02,SSE,157,10.0,10.0,74,0.00,,,0.00,TxWx,2013-03-04 04:07:00,
2013-03-03 22:08:00,63.0,54.0,30.02,South,180,16.0,18.0,74,0.00,,,0.00,TxWx,2013-03-04 04:08:00,
2013-03-03 22:09:00,63.0,55.0,30.00,SSE,157,13.0,16.0,75,0.00,,,0.00,TxWx,2013-03-04 04:09:00,
2013-03-03 22:10:00,63.0,55.0,30.00,SW,225,16.0,16.0,75,0.00,,,0.00,TxWx,2013-03-04 04:10:00,
2013-03-03 22:11:00,63.0,55.0,30.00,SW,225,10.0,11.0,75,0.00,,,0.00,TxWx,2013-03-04 04:11:00,
2013-03-03 22:12:00,63.0,55.0,30.00,South,180,17.0,17.0,75,0.00,,,0.00,TxWx,2013-03-04 04:12:00,
2013-03-03 22:13:00,63.0,55.0,30.02,SSW,202,15.0,15.0,74,0.00,,,0.00,TxWx,2013-03-04 04:13:00,
2013-03-03 22:14:00,63.0,55.0,30.00,SSW,202,10.0,11.0,75,0.00,,,0.00,TxWx,2013-03-04 04:14:00,
2013-03-03 22:15:00,63.0,55.0,30.02,SE,135,9.0,10.0,74,0.00,,,0.00,TxWx,2013-03-04 04:15:00,
2013-03-03 22:16:00,63.0,55.0,30.00,SW,225,11.0,11.0,75,0.00,,,0.00,TxWx,2013-03-04 04:16:00,
2013-03-03 22:17:00,63.0,55.0,30.00,SSW,202,10.0,11.0,75,0.00,,,0.00,TxWx,2013-03-04 04:17:00,
2013-03-03 22:18:00,63.0,55.0,30.02,SW,225,10.0,11.0,74,0.00,,,0.00,TxWx,2013-03-04 04:18:00,
2013-03-03 22:19:00,63.0,55.0,30.02,SSW,202,14.0,14.0,74,0.00,,,0.00,TxWx,2013-03-04 04:19:00,
2013-03-03 22:20:00,63.0,55.0,30.00,SW,225,11.0,13.0,75,0.00,,,0.00,TxWx,2013-03-04 04:20:00,
2013-03-03 22:21:00,63.0,55.0,30.02,South,180,6.0,6.0,74,0.00,,,0.00,TxWx,2013-03-04 04:21:00,
2013-03-03 22:22:00,63.0,55.0,29.99,SSW,202,9.0,10.0,75,0.00,,,0.00,TxWx,2013-03-04 04:22:00,
2013-03-03 22:23:00,63.0,55.0,30.00,SW,225,14.0,14.0,75,0.00,,,0.00,TxWx,2013-03-04 04:23:00,
2013-03-03 22:24:00,63.0,55.0,30.02,South,180,13.0,13.0,74,0.00,,,0.00,TxWx,2013-03-04 04:24:00,
2013-03-03 22:25:00,63.0,55.0,30.02,SSW,202,16.0,16.0,74,0.00,,,0.00,TxWx,2013-03-04 04:25:00,
2013-03-03 22:26:00,63.0,55.0,30.02,South,180,11.0,14.0,74,0.00,,,0.00,TxWx,2013-03-04 04:26:00,
2013-03-03 22:27:00,63.0,55.0,29.99,SW,225,16.0,16.0,75,0.00,,,0.00,TxWx,2013-03-04 04:27:00,
2013-03-03 22:28:00,63.0,55.0,30.00,SSW,202,10.0,13.0,75,0.00,,,0.00,TxWx,2013-03-04 04:28:00,
2013-03-03 22:29:00,63.0,55.0,30.02,South,180,16.0,16.0,74,0.00,,,0.00,TxWx,2013-03-04 04:29:00,
2013-03-03 22:30:00,63.0,55.0,30.02,South,180,10.0,10.0,74,0.00,,,0.00,TxWx,2013-03-04 04:30:00,
2013-03-03 22:31:00,63.0,55.0,30.02,South,180,10.0,12.0,74,0.00,,,0.00,TxWx,2013-03-04 04:31:00,
2013-03-03 22:32:00,63.0,55.0,29.99,South,180,18.0,18.0,75,0.00,,,0.00,TxWx,2013-03-04 04:32:00,
2013-03-03 22:33:00,63.0,55.0,30.02,South,180,11.0,13.0,74,0.00,,,0.00,TxWx,2013-03-04 04:33:00,
2013-03-03 22:34:00,63.0,55.0,29.99,SW,225,14.0,16.0,75,0.00,,,0.00,TxWx,2013-03-04 04:34:00,
2013-03-03 22:35:00,63.0,55.0,30.01,SSW,202,14.0,16.0,74,0.00,,,0.00,TxWx,2013-03-04 04:35:00,
2013-03-03 22:36:00,63.0,55.0,30.01,South,180,11.0,11.0,74,0.00,,,0.00,TxWx,2013-03-04 04:36:00,
2013-03-03 22:37:00,63.0,55.0,29.99,SW,225,11.0,11.0,75,0.00,,,0.00,TxWx,2013-03-04 04:37:00,
2013-03-03 22:38:00,63.0,55.0,29.99,SSW,202,11.0,11.0,75,0.00,,,0.00,TxWx,2013-03-04 04:38:00,
2013-03-03 22:39:00,63.0,55.0,29.99,SSW,202,13.0,13.0,75,0.00,,,0.00,TxWx,2013-03-04 04:39:00,
2013-03-03 22:40:00,63.0,55.0,29.99,SSE,157,8.0,8.0,75,0.00,,,0.00,TxWx,2013-03-04 04:40:00,
2013-03-03 22:41:00,63.0,55.0,30.01,SSW,202,19.0,20.0,74,0.00,,,0.00,TxWx,2013-03-04 04:41:00,
2013-03-03 22:42:00,63.0,55.0,30.01,SSW,202,16.0,16.0,74,0.00,,,0.00,TxWx,2013-03-04 04:42:00,
2013-03-03 22:46:00,63.0,55.0,29.99,SSW,202,11.0,13.0,75,0.00,,,0.00,TxWx,2013-03-04 04:46:00,
2013-03-03 22:47:00,63.0,55.0,30.01,SSW,202,5.0,6.0,74,0.00,,,0.00,TxWx,2013-03-04 04:47:00,
2013-03-03 22:48:00,63.0,55.0,30.01,SSW,202,16.0,16.0,75,0.00,,,0.00,TxWx,2013-03-04 04:48:00,
2013-03-03 22:51:00,63.0,55.0,30.01,SSW,202,8.0,8.0,75,0.00,,,0.00,TxWx,2013-03-04 04:51:00,
2013-03-03 22:52:00,63.0,55.0,30.01,South,180,10.0,14.0,75,0.00,,,0.00,TxWx,2013-03-04 04:52:00,
2013-03-03 22:54:00,63.0,55.0,30.01,SSW,202,13.0,13.0,75,0.00,,,0.00,TxWx,2013-03-04 04:54:00,
2013-03-03 22:56:00,63.0,55.0,30.01,SW,225,10.0,13.0,75,0.00,,,0.00,TxWx,2013-03-04 04:56:00,
2013-03-03 22:57:00,63.0,55.0,30.01,SSW,202,17.0,17.0,75,0.00,,,0.00,TxWx,2013-03-04 04:57:00,
2013-03-03 22:58:00,63.0,55.0,30.01,SSW,202,17.0,17.0,75,0.00,,,0.00,TxWx,2013-03-04 04:58:00,
2013-03-03 22:59:00,63.0,55.0,30.01,SSW,202,9.0,10.0,75,0.00,,,0.00,TxWx,2013-03-04 04:59:00,
2013-03-03 23:15:00,63.0,55.0,30.00,SSW,202,11.0,11.0,75,0.00,,,0.00,TxWx,2013-03-04 05:15:00,
2013-03-03 23:20:00,63.0,55.0,30.00,SSW,202,16.0,18.0,75,0.00,,,0.00,TxWx,2013-03-04 05:20:00,
2013-03-03 23:25:00,63.0,55.0,30.00,SSW,202,11.0,11.0,75,0.00,,,0.00,TxWx,2013-03-04 05:25:00,
2013-03-03 23:31:00,63.0,55.0,29.99,SW,225,16.0,16.0,75,0.00,,,0.00,TxWx,2013-03-04 05:31:00,
2013-03-03 23:36:00,63.0,55.0,29.99,SSW,202,10.0,11.0,75,0.00,,,0.00,TxWx,2013-03-04 05:36:00,
2013-03-03 23:39:00,63.0,55.0,29.99,SSW,202,9.0,13.0,75,0.00,,,0.00,TxWx,2013-03-04 05:39:00,
2013-03-03 23:42:00,63.0,55.0,29.99,SW,225,9.0,9.0,75,0.00,,,0.00,TxWx,2013-03-04 05:42:00,
2013-03-03 23:43:00,63.0,55.0,29.99,South,180,17.0,17.0,75,0.00,,,0.00,TxWx,2013-03-04 05:43:00,
2013-03-03 23:44:00,63.0,55.0,29.99,SSW,202,12.0,12.0,75,0.00,,,0.00,TxWx,2013-03-04 05:44:00,
2013-03-03 23:48:00,63.0,55.0,29.99,SSW,202,14.0,14.0,75,0.00,,,0.00,TxWx,2013-03-04 05:48:00,
2013-03-03 23:49:00,63.0,55.0,29.99,SSW,202,10.0,10.0,75,0.00,,,0.00,TxWx,2013-03-04 05:49:00,
2013-03-03 23:52:00,63.0,55.0,29.99,SSW,202,10.0,10.0,75,0.00,,,0.00,TxWx,2013-03-04 05:52:00,
2013-03-03 23:53:00,63.0,55.0,29.99,WSW,247,14.0,14.0,75,0.00,,,0.00,TxWx,2013-03-04 05:53:00,
2013-03-03 23:54:00,63.0,55.0,29.98,SSW,202,20.0,20.0,75,0.00,,,0.00,TxWx,2013-03-04 05:54:00,
2013-03-03 23:55:00,63.0,55.0,29.98,SSW,202,21.0,21.0,75,0.00,,,0.00,TxWx,2013-03-04 05:55:00,
2013-03-03 23:58:00,63.0,55.0,29.98,SSW,202,18.0,18.0,75,0.00,,,0.00,TxWx,2013-03-04 05:58:00,
2013-03-03 23:59:00,63.0,55.0,29.98,SSW,202,13.0,14.0,75,0.00,,,0.00,TxWx,2013-03-04 05:59:00,